Observation data for Coyanosa on 11/14/2019      Previous  Date  Next       Current Mesonet Observations  Soil Data  Daily Summary Page  Observations in Plain Language
KCO1 140600Z 04004KT 03/02 A3003 RMK A01 T00280020  RH  094%=      5-min Rain = 0
KCO1 140601Z 06005KT 03/02 A3003 RMK A01 T00280019  RH  094%=      5-min Rain = 0
KCO1 140602Z 06003KT 03/02 A3003 RMK A01 T00280019  RH  094%=      5-min Rain = 0
KCO1 140603Z 35002KT 03/02 A3003 RMK A01 T00270019  RH  094%=      5-min Rain = 0
KCO1 140604Z 33003KT 03/02 A3003 RMK A01 T00280019  RH  094%=      5-min Rain = 0
KCO1 140605Z 02004KT 03/02 A3003 RMK A01 T00280020  RH  095%=      5-min Rain = 0
KCO1 140606Z 05005KT 03/02 A3003 RMK A01 T00300022  RH  095%=      5-min Rain = 0
KCO1 140607Z 07006KT 03/03 A3003 RMK A01 T00320025  RH  095%=      5-min Rain = 0
KCO1 140608Z 07006KT 03/03 A3003 RMK A01 T00330027  RH  096%=      5-min Rain = 0
KCO1 140609Z 07006KT 03/03 A3003 RMK A01 T00340028  RH  096%=      5-min Rain = 0
KCO1 140610Z 07005KT 04/03 A3003 RMK A01 T00360029  RH  096%=      5-min Rain = 0
KCO1 140611Z 07004KT 04/03 A3003 RMK A01 T00360030  RH  096%=      5-min Rain = 0
KCO1 140612Z 06003KT 04/03 A3003 RMK A01 T00370030  RH  095%=      5-min Rain = 0
KCO1 140613Z 05003KT 04/03 A3003 RMK A01 T00370031  RH  095%=      5-min Rain = 0
KCO1 140614Z 04003KT 04/03 A3003 RMK A01 T00370031  RH  095%=      5-min Rain = 0
KCO1 140615Z 04003KT 04/03 A3003 RMK A01 T00380031  RH  095%=      5-min Rain = 0
KCO1 140616Z 05004KT 04/03 A3003 RMK A01 T00380030  RH  095%=      5-min Rain = 0
KCO1 140617Z 05004KT 04/03 A3003 RMK A01 T00380031  RH  095%=      5-min Rain = 0
KCO1 140618Z 05004KT 04/03 A3003 RMK A01 T00380030  RH  095%=      5-min Rain = 0
KCO1 140619Z 04004KT 04/03 A3003 RMK A01 T00380030  RH  095%=      5-min Rain = 0
KCO1 140620Z 05004KT 04/03 A3003 RMK A01 T00370029  RH  095%=      5-min Rain = 0
KCO1 140621Z 05004KT 04/03 A3003 RMK A01 T00360028  RH  094%=      5-min Rain = 0
KCO1 140622Z 05004KT 04/03 A3003 RMK A01 T00360027  RH  094%=      5-min Rain = 0
KCO1 140623Z 06003KT 04/03 A3003 RMK A01 T00350026  RH  094%=      5-min Rain = 0
KCO1 140624Z 06003KT 04/03 A3003 RMK A01 T00350026  RH  094%=      5-min Rain = 0
KCO1 140625Z 06003KT 03/03 A3003 RMK A01 T00340025  RH  094%=      5-min Rain = 0
KCO1 140626Z 06003KT 03/03 A3003 RMK A01 T00340025  RH  094%=      5-min Rain = 0
KCO1 140627Z 05003KT 03/02 A3003 RMK A01 T00330024  RH  094%=      5-min Rain = 0
KCO1 140628Z 04003KT 03/02 A3004 RMK A01 T00330024  RH  094%=      5-min Rain = 0
KCO1 140629Z 05003KT 03/02 A3004 RMK A01 T00330024  RH  094%=      5-min Rain = 0
KCO1 140630Z 06004KT 03/02 A3004 RMK A01 T00330024  RH  094%=      5-min Rain = 0
KCO1 140631Z 06004KT 03/02 A3004 RMK A01 T00320024  RH  094%=      5-min Rain = 0
KCO1 140632Z 06003KT 03/02 A3004 RMK A01 T00320023  RH  094%=      5-min Rain = 0
KCO1 140633Z 06003KT 03/02 A3004 RMK A01 T00310022  RH  094%=      5-min Rain = 0
KCO1 140634Z 06002KT 03/02 A3004 RMK A01 T00310022  RH  094%=      5-min Rain = 0
KCO1 140635Z 07003KT 03/02 A3004 RMK A01 T00300021  RH  094%=      5-min Rain = 0
KCO1 140636Z 07003KT 03/02 A3004 RMK A01 T00310022  RH  094%=      5-min Rain = 0
KCO1 140637Z 06003KT 03/02 A3004 RMK A01 T00300022  RH  094%=      5-min Rain = 0
KCO1 140638Z 04002KT 03/02 A3004 RMK A01 T00310022  RH  094%=      5-min Rain = 0
KCO1 140639Z 05002KT 03/02 A3004 RMK A01 T00310022  RH  094%=      5-min Rain = 0
KCO1 140640Z 07003KT 03/02 A3004 RMK A01 T00300022  RH  094%=      5-min Rain = 0
KCO1 140641Z 08005KT 03/02 A3004 RMK A01 T00300022  RH  094%=      5-min Rain = 0
KCO1 140642Z 07004KT 03/02 A3004 RMK A01 T00310023  RH  094%=      5-min Rain = 0
KCO1 140643Z 35001KT 03/02 A3004 RMK A01 T00300022  RH  094%=      5-min Rain = 0
KCO1 140644Z 30002KT 03/02 A3004 RMK A01 T00290021  RH  094%=      5-min Rain = 0
KCO1 140645Z 00001KT 03/02 A3004 RMK A01 T00290021  RH  094%=      5-min Rain = 0
KCO1 140646Z 07003KT 03/02 A3004 RMK A01 T00290021  RH  094%=      5-min Rain = 0
KCO1 140647Z 07003KT 03/02 A3004 RMK A01 T00290021  RH  094%=      5-min Rain = 0
KCO1 140648Z 06002KT 03/02 A3004 RMK A01 T00290021  RH  094%=      5-min Rain = 0
KCO1 140649Z 06002KT 03/02 A3004 RMK A01 T00290021  RH  094%=      5-min Rain = 0
KCO1 140650Z 06001KT 03/02 A3004 RMK A01 T00290021  RH  094%=      5-min Rain = 0
KCO1 140651Z 06002KT 03/02 A3004 RMK A01 T00290021  RH  094%=      5-min Rain = 0
KCO1 140652Z 06002KT 03/02 A3004 RMK A01 T00290021  RH  094%=      5-min Rain = 0
KCO1 140653Z 05003KT 03/02 A3004 RMK A01 T00290021  RH  094%=      5-min Rain = 0
KCO1 140654Z 04003KT 03/02 A3004 RMK A01 T00290021  RH  095%=      5-min Rain = 0
KCO1 140655Z 03003KT 03/02 A3004 RMK A01 T00290021  RH  094%=      5-min Rain = 0
KCO1 140656Z 02003KT 03/02 A3004 RMK A01 T00290021  RH  094%=      5-min Rain = 0
KCO1 140657Z 02003KT 03/02 A3004 RMK A01 T00290020  RH  094%=      5-min Rain = 0
KCO1 140658Z 02003KT 03/02 A3004 RMK A01 T00280020  RH  094%=      5-min Rain = 0
KCO1 140659Z 02002KT 03/02 A3004 RMK A01 T00270019  RH  094%=      5-min Rain = 0
KCO1 140700Z 01002KT 03/02 A3004 RMK A01 T00270019  RH  094%=      5-min Rain = 0
KCO1 140701Z 00003KT 03/02 A3004 RMK A01 T00270019  RH  094%=      5-min Rain = 0
KCO1 140702Z 00003KT 03/02 A3004 RMK A01 T00270019  RH  094%=      5-min Rain = 0
KCO1 140703Z 01003KT 03/02 A3004 RMK A01 T00270019  RH  094%=      5-min Rain = 0
KCO1 140704Z 01003KT 03/02 A3005 RMK A01 T00270019  RH  095%=      5-min Rain = 0
KCO1 140705Z 01003KT 03/02 A3005 RMK A01 T00260018  RH  094%=      5-min Rain = 0
KCO1 140706Z 00003KT 03/02 A3005 RMK A01 T00250017  RH  094%=      5-min Rain = 0
KCO1 140707Z 00003KT 03/02 A3005 RMK A01 T00250016  RH  094%=      5-min Rain = 0
KCO1 140708Z 01003KT 02/02 A3005 RMK A01 T00240016  RH  094%=      5-min Rain = 0
KCO1 140709Z 01003KT 02/02 A3005 RMK A01 T00230015  RH  094%=      5-min Rain = 0
KCO1 140710Z 02003KT 02/02 A3005 RMK A01 T00230015  RH  094%=      5-min Rain = 0
KCO1 140711Z 02003KT 02/01 A3005 RMK A01 T00220014  RH  094%=      5-min Rain = 0
KCO1 140712Z 01004KT 02/01 A3005 RMK A01 T00220013  RH  094%=      5-min Rain = 0
KCO1 140713Z 01004KT 02/01 A3005 RMK A01 T00210013  RH  094%=      5-min Rain = 0
KCO1 140714Z 01004KT 02/01 A3005 RMK A01 T00210012  RH  094%=      5-min Rain = 0
KCO1 140715Z 02004KT 02/01 A3005 RMK A01 T00200012  RH  094%=      5-min Rain = 0
KCO1 140716Z 01003KT 02/01 A3005 RMK A01 T00200012  RH  094%=      5-min Rain = 0
KCO1 140717Z 36003KT 02/01 A3005 RMK A01 T00190011  RH  094%=      5-min Rain = 0
KCO1 140718Z 00004KT 02/01 A3005 RMK A01 T00190011  RH  095%=      5-min Rain = 0
KCO1 140719Z 01003KT 02/01 A3005 RMK A01 T00190012  RH  095%=      5-min Rain = 0
KCO1 140720Z 02004KT 02/01 A3005 RMK A01 T00190012  RH  095%=      5-min Rain = 0
KCO1 140721Z 01004KT 02/01 A3005 RMK A01 T00190011  RH  095%=      5-min Rain = 0
KCO1 140722Z 36004KT 02/01 A3005 RMK A01 T00180010  RH  095%=      5-min Rain = 0
KCO1 140723Z 00004KT 02/01 A3005 RMK A01 T00180010  RH  095%=      5-min Rain = 0
KCO1 140724Z 02004KT 02/01 A3005 RMK A01 T00170010  RH  095%=      5-min Rain = 0
KCO1 140725Z 02004KT 02/01 A3005 RMK A01 T00170009  RH  095%=      5-min Rain = 0
KCO1 140726Z 36004KT 02/01 A3005 RMK A01 T00160009  RH  095%=      5-min Rain = 0
KCO1 140727Z 02003KT 02/01 A3005 RMK A01 T00170009  RH  095%=      5-min Rain = 0
KCO1 140728Z 02003KT 02/01 A3005 RMK A01 T00160009  RH  095%=      5-min Rain = 0
KCO1 140729Z 36005KT 02/01 A3006 RMK A01 T00160009  RH  095%=      5-min Rain = 0
KCO1 140730Z 04005KT 02/01 A3006 RMK A01 T00170010  RH  095%=      5-min Rain = 0
KCO1 140731Z 04005KT 02/01 A3006 RMK A01 T00170011  RH  095%=      5-min Rain = 0
KCO1 140732Z 03005KT 02/01 A3006 RMK A01 T00180011  RH  095%=      5-min Rain = 0
KCO1 140733Z 02004KT 02/01 A3006 RMK A01 T00180011  RH  096%=      5-min Rain = 0
KCO1 140734Z 01003KT 02/01 A3006 RMK A01 T00180011  RH  095%=      5-min Rain = 0
KCO1 140735Z 01002KT 02/01 A3006 RMK A01 T00170011  RH  095%=      5-min Rain = 0
KCO1 140736Z 00003KT 02/01 A3006 RMK A01 T00170010  RH  095%=      5-min Rain = 0
KCO1 140737Z 01003KT 02/01 A3006 RMK A01 T00170010  RH  095%=      5-min Rain = 0
KCO1 140738Z 02004KT 02/01 A3006 RMK A01 T00170010  RH  095%=      5-min Rain = 0
KCO1 140739Z 03004KT 02/01 A3006 RMK A01 T00170010  RH  096%=      5-min Rain = 0
KCO1 140740Z 03004KT 02/01 A3006 RMK A01 T00170010  RH  096%=      5-min Rain = 0
KCO1 140741Z 03004KT 02/01 A3006 RMK A01 T00160010  RH  095%=      5-min Rain = 0
KCO1 140742Z 02004KT 02/01 A3006 RMK A01 T00160010  RH  096%=      5-min Rain = 0
KCO1 140743Z 02004KT 02/01 A3007 RMK A01 T00160010  RH  096%=      5-min Rain = 0
KCO1 140744Z 01004KT 02/01 A3007 RMK A01 T00160010  RH  096%=      5-min Rain = 0
KCO1 140745Z 01004KT 02/01 A3007 RMK A01 T00170010  RH  096%=      5-min Rain = 0
KCO1 140746Z 01005KT 02/01 A3007 RMK A01 T00160009  RH  096%=      5-min Rain = 0
KCO1 140747Z 01005KT 02/01 A3007 RMK A01 T00150009  RH  095%=      5-min Rain = 0
KCO1 140748Z 01005KT 02/01 A3007 RMK A01 T00150009  RH  096%=      5-min Rain = 0
KCO1 140749Z 01004KT 02/01 A3007 RMK A01 T00150009  RH  096%=      5-min Rain = 0
KCO1 140750Z 01004KT 02/01 A3007 RMK A01 T00150008  RH  096%=      5-min Rain = 0
KCO1 140751Z 36004KT 01/01 A3007 RMK A01 T00140008  RH  096%=      5-min Rain = 0
KCO1 140752Z 00004KT 01/01 A3007 RMK A01 T00140007  RH  096%=      5-min Rain = 0
KCO1 140753Z 00005KT 01/01 A3007 RMK A01 T00130007  RH  096%=      5-min Rain = 0
KCO1 140754Z 01004KT 01/01 A3007 RMK A01 T00130006  RH  096%=      5-min Rain = 0
KCO1 140755Z 01004KT 01/01 A3007 RMK A01 T00120006  RH  096%=      5-min Rain = 0
KCO1 140756Z 01005KT 01/01 A3008 RMK A01 T00120006  RH  095%=      5-min Rain = 0
KCO1 140757Z 01005KT 01/01 A3008 RMK A01 T00120006  RH  096%=      5-min Rain = 0
KCO1 140758Z 01004KT 01/01 A3008 RMK A01 T00120005  RH  096%=      5-min Rain = 0
KCO1 140759Z 01004KT 01/01 A3008 RMK A01 T00120006  RH  096%=      5-min Rain = 0
KCO1 140800Z 01004KT 01/01 A3008 RMK A01 T00110005  RH  096%=      5-min Rain = 0
KCO1 140801Z 01004KT 01/01 A3008 RMK A01 T00110005  RH  096%=      5-min Rain = 0
KCO1 140802Z 01004KT 01/01 A3008 RMK A01 T00110005  RH  096%=      5-min Rain = 0
KCO1 140803Z 00004KT 01/01 A3008 RMK A01 T00110005  RH  096%=      5-min Rain = 0
KCO1 140804Z 00003KT 01/01 A3008 RMK A01 T00110005  RH  096%=      5-min Rain = 0
KCO1 140805Z 36003KT 01/01 A3008 RMK A01 T00110005  RH  096%=      5-min Rain = 0
KCO1 140806Z 35003KT 01/01 A3008 RMK A01 T00110005  RH  096%=      5-min Rain = 0
KCO1 140807Z 35003KT 01/01 A3008 RMK A01 T00110005  RH  096%=      5-min Rain = 0
KCO1 140808Z 35003KT 01/01 A3008 RMK A01 T00110006  RH  096%=      5-min Rain = 0
KCO1 140809Z 36003KT 01/01 A3008 RMK A01 T00120006  RH  096%=      5-min Rain = 0
KCO1 140810Z 35003KT 01/01 A3008 RMK A01 T00120006  RH  096%=      5-min Rain = 0
KCO1 140811Z 35003KT 01/01 A3008 RMK A01 T00120006  RH  096%=      5-min Rain = 0
KCO1 140812Z 35003KT 01/01 A3008 RMK A01 T00110006  RH  096%=      5-min Rain = 0
KCO1 140813Z 35003KT 01/01 A3008 RMK A01 T00110006  RH  096%=      5-min Rain = 0
KCO1 140814Z 35003KT 01/01 A3008 RMK A01 T00110005  RH  096%=      5-min Rain = 0
KCO1 140815Z 35003KT 01/01 A3008 RMK A01 T00110005  RH  096%=      5-min Rain = 0
KCO1 140816Z 35003KT 01/01 A3008 RMK A01 T00110005  RH  096%=      5-min Rain = 0
KCO1 140817Z 35003KT 01/01 A3009 RMK A01 T00110005  RH  096%=      5-min Rain = 0
KCO1 140818Z 36003KT 01/01 A3009 RMK A01 T00110005  RH  096%=      5-min Rain = 0
KCO1 140819Z 00003KT 01/01 A3009 RMK A01 T00110005  RH  096%=      5-min Rain = 0
KCO1 140820Z 36003KT 01/01 A3009 RMK A01 T00110005  RH  096%=      5-min Rain = 0
KCO1 140821Z 36003KT 01/01 A3009 RMK A01 T00100005  RH  096%=      5-min Rain = 0
KCO1 140822Z 36003KT 01/00 A3009 RMK A01 T00100004  RH  096%=      5-min Rain = 0
KCO1 140823Z 36003KT 01/00 A3009 RMK A01 T00100004  RH  096%=      5-min Rain = 0
KCO1 140824Z 00002KT 01/00 A3009 RMK A01 T00100004  RH  096%=      5-min Rain = 0
KCO1 140825Z 01002KT 01/00 A3009 RMK A01 T00100004  RH  096%=      5-min Rain = 0
KCO1 140826Z 01002KT 01/00 A3009 RMK A01 T00090004  RH  096%=      5-min Rain = 0
KCO1 140827Z 02002KT 01/00 A3009 RMK A01 T00090004  RH  096%=      5-min Rain = 0
KCO1 140828Z 02002KT 01/00 A3009 RMK A01 T00090003  RH  096%=      5-min Rain = 0
KCO1 140829Z 02002KT 01/00 A3009 RMK A01 T00090003  RH  096%=      5-min Rain = 0
KCO1 140830Z 02002KT 01/00 A3009 RMK A01 T00090003  RH  096%=      5-min Rain = 0
KCO1 140831Z 02002KT 01/00 A3009 RMK A01 T00090003  RH  096%=      5-min Rain = 0
KCO1 140832Z 01002KT 01/00 A3009 RMK A01 T00090003  RH  096%=      5-min Rain = 0
KCO1 140833Z 01003KT 01/00 A3009 RMK A01 T00090003  RH  096%=      5-min Rain = 0
KCO1 140834Z 01002KT 01/00 A3009 RMK A01 T00090004  RH  096%=      5-min Rain = 0
KCO1 140835Z 01002KT 01/00 A3009 RMK A01 T00100004  RH  096%=      5-min Rain = 0
KCO1 140836Z 01003KT 01/01 A3009 RMK A01 T00100005  RH  096%=      5-min Rain = 0
KCO1 140837Z 01002KT 01/01 A3009 RMK A01 T00110006  RH  096%=      5-min Rain = 0
KCO1 140838Z 01002KT 01/01 A3009 RMK A01 T00110006  RH  096%=      5-min Rain = 0
KCO1 140839Z 01002KT 01/01 A301 RMK A01 T00120007  RH  096%=      5-min Rain = 0
KCO1 140840Z 01002KT 01/01 A301 RMK A01 T00120007  RH  096%=      5-min Rain = 0
KCO1 140841Z 00002KT 01/01 A301 RMK A01 T00120007  RH  096%=      5-min Rain = 0
KCO1 140842Z 00003KT 01/01 A301 RMK A01 T00130008  RH  096%=      5-min Rain = 0
KCO1 140843Z 00003KT 01/01 A301 RMK A01 T00130008  RH  096%=      5-min Rain = 0
KCO1 140844Z 35003KT 01/01 A301 RMK A01 T00130008  RH  097%=      5-min Rain = 0
KCO1 140845Z 35003KT 01/01 A301 RMK A01 T00140009  RH  097%=      5-min Rain = 0
KCO1 140846Z 35003KT 01/01 A301 RMK A01 T00140009  RH  097%=      5-min Rain = 0
KCO1 140847Z 36003KT 02/01 A301 RMK A01 T00150010  RH  097%=      5-min Rain = 0
KCO1 140848Z 35003KT 02/01 A301 RMK A01 T00150010  RH  097%=      5-min Rain = 0
KCO1 140849Z 35003KT 01/01 A301 RMK A01 T00140009  RH  096%=      5-min Rain = 0
KCO1 140850Z 34003KT 01/01 A301 RMK A01 T00140009  RH  096%=      5-min Rain = 0
KCO1 140851Z 34003KT 01/01 A301 RMK A01 T00140008  RH  096%=      5-min Rain = 0
KCO1 140852Z 34003KT 01/01 A301 RMK A01 T00130008  RH  096%=      5-min Rain = 0
KCO1 140853Z 34002KT 01/01 A301 RMK A01 T00130008  RH  096%=      5-min Rain = 0
KCO1 140854Z 34002KT 01/01 A301 RMK A01 T00130007  RH  096%=      5-min Rain = 0
KCO1 140855Z 33003KT 01/01 A301 RMK A01 T00120007  RH  096%=      5-min Rain = 0
KCO1 140856Z 33003KT 01/01 A301 RMK A01 T00120006  RH  096%=      5-min Rain = 0
KCO1 140857Z 33004KT 01/01 A301 RMK A01 T00120006  RH  096%=      5-min Rain = 0
KCO1 140858Z 32004KT 01/01 A301 RMK A01 T00110005  RH  096%=      5-min Rain = 0
KCO1 140859Z 33004KT 01/01 A301 RMK A01 T00110005  RH  096%=      5-min Rain = 0
KCO1 140900Z 33004KT 01/01 A301 RMK A01 T00110006  RH  096%=      5-min Rain = 0
KCO1 140901Z 33004KT 01/01 A301 RMK A01 T00110006  RH  096%=      5-min Rain = 0
KCO1 140902Z 33004KT 01/01 A3011 RMK A01 T00110006  RH  096%=      5-min Rain = 0
KCO1 140903Z 33004KT 01/01 A3011 RMK A01 T00110005  RH  096%=      5-min Rain = 0
KCO1 140904Z 33004KT 01/01 A3011 RMK A01 T00110005  RH  096%=      5-min Rain = 0
KCO1 140905Z 32003KT 01/01 A3011 RMK A01 T00110005  RH  096%=      5-min Rain = 0
KCO1 140906Z 33004KT 01/01 A3011 RMK A01 T00120006  RH  096%=      5-min Rain = 0
KCO1 140907Z 33004KT 01/01 A3011 RMK A01 T00120007  RH  096%=      5-min Rain = 0
KCO1 140908Z 33005KT 01/01 A3011 RMK A01 T00120007  RH  096%=      5-min Rain = 0
KCO1 140909Z 33004KT 01/01 A3011 RMK A01 T00120007  RH  096%=      5-min Rain = 0
KCO1 140910Z 33004KT 01/01 A3011 RMK A01 T00120007  RH  096%=      5-min Rain = 0
KCO1 140911Z 33004KT 01/01 A3011 RMK A01 T00120007  RH  096%=      5-min Rain = 0
KCO1 140912Z 32004KT 01/01 A3011 RMK A01 T00130007  RH  096%=      5-min Rain = 0
KCO1 140913Z 32003KT 01/01 A3011 RMK A01 T00130007  RH  096%=      5-min Rain = 0
KCO1 140914Z 33004KT 01/01 A3011 RMK A01 T00130007  RH  096%=      5-min Rain = 0
KCO1 140915Z 33004KT 01/01 A3011 RMK A01 T00130007  RH  096%=      5-min Rain = 0
KCO1 140916Z 33004KT 01/01 A3011 RMK A01 T00130007  RH  096%=      5-min Rain = 0
KCO1 140917Z 32004KT 01/01 A3011 RMK A01 T00130007  RH  096%=      5-min Rain = 0
KCO1 140918Z 32004KT 01/01 A3011 RMK A01 T00130007  RH  096%=      5-min Rain = 0
KCO1 140919Z 32004KT 01/01 A3011 RMK A01 T00120006  RH  096%=      5-min Rain = 0
KCO1 140920Z 32005KT 01/01 A3011 RMK A01 T00120006  RH  096%=      5-min Rain = 0
KCO1 140921Z 33005KT 01/01 A3011 RMK A01 T00110005  RH  096%=      5-min Rain = 0
KCO1 140922Z 33005KT 01/01 A3011 RMK A01 T00110005  RH  096%=      5-min Rain = 0
KCO1 140923Z 33006KT 01/01 A3011 RMK A01 T00110006  RH  096%=      5-min Rain = 0
KCO1 140924Z 33005KT 01/01 A3011 RMK A01 T00120006  RH  096%=      5-min Rain = 0
KCO1 140925Z 33005KT 01/01 A3011 RMK A01 T00120006  RH  096%=      5-min Rain = 0
KCO1 140926Z 32005KT 01/01 A3011 RMK A01 T00120006  RH  096%=      5-min Rain = 0
KCO1 140927Z 32005KT 01/01 A3012 RMK A01 T00120006  RH  096%=      5-min Rain = 0
KCO1 140928Z 32005KT 01/01 A3012 RMK A01 T00120006  RH  096%=      5-min Rain = 0
KCO1 140929Z 32005KT 01/01 A3012 RMK A01 T00120006  RH  096%=      5-min Rain = 0
KCO1 140930Z 32005KT 01/01 A3012 RMK A01 T00120006  RH  096%=      5-min Rain = 0
KCO1 140931Z 32005KT 01/01 A3012 RMK A01 T00110005  RH  096%=      5-min Rain = 0
KCO1 140932Z 32005KT 01/01 A3012 RMK A01 T00110005  RH  096%=      5-min Rain = 0
KCO1 140933Z 32005KT 01/01 A3012 RMK A01 T00110005  RH  096%=      5-min Rain = 0
KCO1 140934Z 33005KT 01/01 A3012 RMK A01 T00110005  RH  096%=      5-min Rain = 0
KCO1 140935Z 33005KT 01/00 A3012 RMK A01 T00110004  RH  096%=      5-min Rain = 0
KCO1 140936Z 33004KT 01/00 A3012 RMK A01 T00100004  RH  096%=      5-min Rain = 0
KCO1 140937Z 33004KT 01/00 A3012 RMK A01 T00100004  RH  096%=      5-min Rain = 0
KCO1 140938Z 33004KT 01/00 A3012 RMK A01 T00100004  RH  096%=      5-min Rain = 0
KCO1 140939Z 34004KT 01/00 A3012 RMK A01 T00100004  RH  096%=      5-min Rain = 0
KCO1 140940Z 34004KT 01/00 A3012 RMK A01 T00100004  RH  096%=      5-min Rain = 0
KCO1 140941Z 34003KT 01/00 A3012 RMK A01 T00100004  RH  096%=      5-min Rain = 0
KCO1 140942Z 33003KT 01/00 A3012 RMK A01 T00100003  RH  096%=      5-min Rain = 0
KCO1 140943Z 33003KT 01/00 A3012 RMK A01 T00090003  RH  096%=      5-min Rain = 0
KCO1 140944Z 33003KT 01/00 A3013 RMK A01 T00090002  RH  095%=      5-min Rain = 0
KCO1 140945Z 33003KT 01/00 A3013 RMK A01 T00080002  RH  095%=      5-min Rain = 0
KCO1 140946Z 34003KT 01/00 A3013 RMK A01 T00080002  RH  095%=      5-min Rain = 0
KCO1 140947Z 33004KT 01/00 A3013 RMK A01 T00080002  RH  095%=      5-min Rain = 0
KCO1 140948Z 33003KT 01/00 A3013 RMK A01 T00080002  RH  096%=      5-min Rain = 0
KCO1 140949Z 34004KT 01/00 A3013 RMK A01 T00090002  RH  096%=      5-min Rain = 0
KCO1 140950Z 33004KT 01/00 A3013 RMK A01 T00090002  RH  096%=      5-min Rain = 0
KCO1 140951Z 33004KT 01/00 A3013 RMK A01 T00090003  RH  096%=      5-min Rain = 0
KCO1 140952Z 33004KT 01/00 A3013 RMK A01 T00090003  RH  096%=      5-min Rain = 0
KCO1 140953Z 33004KT 01/00 A3013 RMK A01 T00090003  RH  096%=      5-min Rain = 0
KCO1 140954Z 33004KT 01/00 A3013 RMK A01 T00100003  RH  096%=      5-min Rain = 0
KCO1 140955Z 33004KT 01/00 A3013 RMK A01 T00090003  RH  096%=      5-min Rain = 0
KCO1 140956Z 33004KT 01/00 A3013 RMK A01 T00090003  RH  096%=      5-min Rain = 0
KCO1 140957Z 33003KT 01/00 A3013 RMK A01 T00090003  RH  096%=      5-min Rain = 0
KCO1 140958Z 33003KT 01/00 A3013 RMK A01 T00090003  RH  096%=      5-min Rain = 0
KCO1 140959Z 33003KT 01/00 A3013 RMK A01 T00090003  RH  096%=      5-min Rain = 0
KCO1 141000Z 34003KT 01/00 A3014 RMK A01 T00090003  RH  096%=      5-min Rain = 0
KCO1 141001Z 33003KT 01/00 A3014 RMK A01 T00100003  RH  096%=      5-min Rain = 0
KCO1 141002Z 33003KT 01/00 A3014 RMK A01 T00090003  RH  096%=      5-min Rain = 0
KCO1 141003Z 33002KT 01/00 A3014 RMK A01 T00090003  RH  096%=      5-min Rain = 0
KCO1 141004Z 33002KT 01/00 A3014 RMK A01 T00090003  RH  096%=      5-min Rain = 0
KCO1 141005Z 33002KT 01/00 A3014 RMK A01 T00100003  RH  096%=      5-min Rain = 0
KCO1 141006Z 32002KT 01/00 A3014 RMK A01 T00090003  RH  096%=      5-min Rain = 0
KCO1 141007Z 32002KT 01/00 A3014 RMK A01 T00090003  RH  096%=      5-min Rain = 0
KCO1 141008Z 32002KT 01/00 A3014 RMK A01 T00090002  RH  096%=      5-min Rain = 0
KCO1 141009Z 32002KT 01/00 A3014 RMK A01 T00080002  RH  096%=      5-min Rain = 0
KCO1 141010Z 32002KT 01/00 A3014 RMK A01 T00080002  RH  096%=      5-min Rain = 0
KCO1 141011Z 32002KT 01/00 A3014 RMK A01 T00090002  RH  096%=      5-min Rain = 0
KCO1 141012Z 33002KT 01/00 A3014 RMK A01 T00090003  RH  096%=      5-min Rain = 0
KCO1 141013Z 32002KT 01/00 A3014 RMK A01 T00090002  RH  096%=      5-min Rain = 0
KCO1 141014Z 32002KT 01/00 A3014 RMK A01 T00080002  RH  096%=      5-min Rain = 0
KCO1 141015Z 31002KT 01/00 A3014 RMK A01 T00090003  RH  096%=      5-min Rain = 0
KCO1 141016Z 31002KT 01/00 A3014 RMK A01 T00090002  RH  096%=      5-min Rain = 0
KCO1 141017Z 31002KT 01/00 A3014 RMK A01 T00080002  RH  096%=      5-min Rain = 0
KCO1 141018Z 30002KT 01/00 A3015 RMK A01 T00080002  RH  096%=      5-min Rain = 0
KCO1 141019Z 30002KT 01/00 A3015 RMK A01 T00080001  RH  096%=      5-min Rain = 0
KCO1 141020Z 30002KT 01/00 A3015 RMK A01 T00070001  RH  096%=      5-min Rain = 0
KCO1 141021Z 29002KT 01/00 A3015 RMK A01 T00070000  RH  096%=      5-min Rain = 0
KCO1 141022Z 29002KT 01/00 A3015 RMK A01 T00070000  RH  096%=      5-min Rain = 0
KCO1 141023Z 29002KT 01/00 A3015 RMK A01 T000600-0  RH  096%=      5-min Rain = 0
KCO1 141024Z 29002KT 01/00 A3015 RMK A01 T00060000  RH  096%=      5-min Rain = 0
KCO1 141025Z 29002KT 01/00 A3015 RMK A01 T00060000  RH  096%=      5-min Rain = 0
KCO1 141026Z 29001KT 01/00 A3015 RMK A01 T00060000  RH  096%=      5-min Rain = 0
KCO1 141027Z 27001KT 01/00 A3015 RMK A01 T00060000  RH  096%=      5-min Rain = 0
KCO1 141028Z 27001KT 01/00 A3015 RMK A01 T000600-0  RH  096%=      5-min Rain = 0
KCO1 141029Z 27001KT 01/00 A3015 RMK A01 T000600-0  RH  096%=      5-min Rain = 0
KCO1 141030Z 28002KT 01/00 A3015 RMK A01 T00060000  RH  096%=      5-min Rain = 0
KCO1 141031Z 28001KT 01/00 A3015 RMK A01 T00070001  RH  096%=      5-min Rain = 0
KCO1 141032Z 26002KT 01/00 A3015 RMK A01 T00080002  RH  096%=      5-min Rain = 0
KCO1 141033Z 25002KT 01/00 A3015 RMK A01 T00080002  RH  096%=      5-min Rain = 0
KCO1 141034Z 23002KT 01/00 A3015 RMK A01 T00080002  RH  096%=      5-min Rain = 0
KCO1 141035Z 23002KT 01/00 A3015 RMK A01 T00080002  RH  096%=      5-min Rain = 0
KCO1 141036Z 22002KT 01/00 A3015 RMK A01 T00080002  RH  096%=      5-min Rain = 0
KCO1 141037Z 23003KT 01/00 A3015 RMK A01 T00070002  RH  096%=      5-min Rain = 0
KCO1 141038Z 23002KT 01/00 A3015 RMK A01 T00070001  RH  096%=      5-min Rain = 0
KCO1 141039Z 23002KT 01/00 A3015 RMK A01 T00060000  RH  096%=      5-min Rain = 0
KCO1 141040Z 23003KT 01/00 A3015 RMK A01 T00060000  RH  096%=      5-min Rain = 0
KCO1 141041Z 22003KT 01/00 A3015 RMK A01 T000600-0  RH  096%=      5-min Rain = 0
KCO1 141042Z 22003KT 01/00 A3015 RMK A01 T00060000  RH  096%=      5-min Rain = 0
KCO1 141043Z 23003KT 01/00 A3015 RMK A01 T000600-0  RH  096%=      5-min Rain = 0
KCO1 141044Z 23003KT 01/00 A3015 RMK A01 T00060000  RH  096%=      5-min Rain = 0
KCO1 141045Z 24003KT 01/00 A3015 RMK A01 T00060000  RH  096%=      5-min Rain = 0
KCO1 141046Z 24003KT 01/00 A3015 RMK A01 T00060000  RH  096%=      5-min Rain = 0
KCO1 141047Z 24003KT 01/00 A3015 RMK A01 T00060000  RH  096%=      5-min Rain = 0
KCO1 141048Z 24003KT 01/00 A3015 RMK A01 T00060000  RH  096%=      5-min Rain = 0
KCO1 141049Z 24003KT 01/00 A3015 RMK A01 T00060000  RH  096%=      5-min Rain = 0
KCO1 141050Z 24003KT 01/00 A3016 RMK A01 T00060000  RH  096%=      5-min Rain = 0
KCO1 141051Z 25003KT 01/00 A3016 RMK A01 T000500-0  RH  096%=      5-min Rain = 0
KCO1 141052Z 25003KT 01/M00 A3016 RMK A01 T00051001  RH  096%=      5-min Rain = 0
KCO1 141053Z 25003KT 01/M00 A3016 RMK A01 T00051001  RH  096%=      5-min Rain = 0
KCO1 141054Z 26003KT 01/M00 A3016 RMK A01 T00051001  RH  096%=      5-min Rain = 0
KCO1 141055Z 25003KT 01/M00 A3016 RMK A01 T00051001  RH  096%=      5-min Rain = 0
KCO1 141056Z 25004KT 01/00 A3016 RMK A01 T00060000  RH  096%=      5-min Rain = 0
KCO1 141057Z 24004KT 01/00 A3016 RMK A01 T00060001  RH  096%=      5-min Rain = 0
KCO1 141058Z 22004KT 01/00 A3016 RMK A01 T00060000  RH  096%=      5-min Rain = 0
KCO1 141059Z 22004KT 01/00 A3016 RMK A01 T00060000  RH  096%=      5-min Rain = 0
KCO1 141100Z 21004KT 01/00 A3016 RMK A01 T000500-0  RH  096%=      5-min Rain = 0
KCO1 141101Z 21004KT 01/00 A3016 RMK A01 T00060000  RH  096%=      5-min Rain = 0
KCO1 141102Z 21003KT 01/00 A3016 RMK A01 T000500-0  RH  096%=      5-min Rain = 0
KCO1 141103Z 21003KT 01/00 A3016 RMK A01 T00050000  RH  096%=      5-min Rain = 0
KCO1 141104Z 22003KT 01/00 A3016 RMK A01 T000500-0  RH  096%=      5-min Rain = 0
KCO1 141105Z 23002KT 01/M00 A3016 RMK A01 T00051001  RH  096%=      5-min Rain = 0
KCO1 141106Z 23004KT 00/M00 A3016 RMK A01 T00041002  RH  096%=      5-min Rain = 0
KCO1 141107Z 23004KT 00/M00 A3016 RMK A01 T00041002  RH  096%=      5-min Rain = 0
KCO1 141108Z 24004KT 00/M00 A3016 RMK A01 T00031002  RH  096%=      5-min Rain = 0
KCO1 141109Z 24004KT 00/M00 A3016 RMK A01 T00031003  RH  096%=      5-min Rain = 0
KCO1 141110Z 24003KT 00/M00 A3016 RMK A01 T00021004  RH  096%=      5-min Rain = 0
KCO1 141111Z 24003KT 00/M00 A3016 RMK A01 T00021003  RH  096%=      5-min Rain = 0
KCO1 141112Z 25003KT 00/M00 A3017 RMK A01 T00031003  RH  096%=      5-min Rain = 0
KCO1 141113Z 26004KT 00/M00 A3017 RMK A01 T00031003  RH  096%=      5-min Rain = 0
KCO1 141114Z 26003KT 00/M00 A3017 RMK A01 T00031003  RH  096%=      5-min Rain = 0
KCO1 141115Z 26003KT 00/M00 A3017 RMK A01 T00031003  RH  096%=      5-min Rain = 0
KCO1 141116Z 26003KT 00/M00 A3017 RMK A01 T00031003  RH  096%=      5-min Rain = 0
KCO1 141117Z 26004KT 00/M00 A3017 RMK A01 T00021003  RH  096%=      5-min Rain = 0
KCO1 141118Z 25005KT 00/M00 A3017 RMK A01 T00021003  RH  096%=      5-min Rain = 0
KCO1 141119Z 25004KT 00/M00 A3017 RMK A01 T00021003  RH  096%=      5-min Rain = 0
KCO1 141120Z 25004KT 00/M00 A3017 RMK A01 T00031003  RH  096%=      5-min Rain = 0
KCO1 141121Z 25004KT 00/M00 A3017 RMK A01 T00031002  RH  096%=      5-min Rain = 0
KCO1 141122Z 26004KT 00/M00 A3018 RMK A01 T00041002  RH  096%=      5-min Rain = 0
KCO1 141123Z 25004KT 01/00 A3018 RMK A01 T000500-0  RH  097%=      5-min Rain = 0
KCO1 141124Z 25004KT 01/00 A3018 RMK A01 T00050000  RH  097%=      5-min Rain = 0
KCO1 141125Z 24005KT 01/00 A3018 RMK A01 T00050000  RH  097%=      5-min Rain = 0
KCO1 141126Z 24005KT 01/00 A3018 RMK A01 T00060001  RH  097%=      5-min Rain = 0
KCO1 141127Z 24005KT 01/00 A3018 RMK A01 T00060001  RH  097%=      5-min Rain = 0
KCO1 141128Z 24006KT 01/00 A3018 RMK A01 T00060001  RH  096%=      5-min Rain = 0
KCO1 141129Z 24006KT 01/00 A3018 RMK A01 T00060000  RH  096%=      5-min Rain = 0
KCO1 141130Z 24005KT 01/00 A3018 RMK A01 T00050000  RH  096%=      5-min Rain = 0
KCO1 141131Z 24006KT 01/00 A3018 RMK A01 T00050000  RH  096%=      5-min Rain = 0
KCO1 141132Z 24005KT 01/00 A3018 RMK A01 T000500-0  RH  096%=      5-min Rain = 0
KCO1 141133Z 24006KT 01/00 A3018 RMK A01 T000500-0  RH  096%=      5-min Rain = 0
KCO1 141134Z 24006KT 01/00 A3018 RMK A01 T000500-0  RH  096%=      5-min Rain = 0
KCO1 141135Z 24006KT 01/M00 A3018 RMK A01 T00051001  RH  096%=      5-min Rain = 0
KCO1 141136Z 24006KT 01/M00 A3018 RMK A01 T00051001  RH  096%=      5-min Rain = 0
KCO1 141137Z 24006KT 01/00 A3019 RMK A01 T00060001  RH  097%=      5-min Rain = 0
KCO1 141138Z 24005KT 01/00 A3019 RMK A01 T00050000  RH  097%=      5-min Rain = 0
KCO1 141139Z 24005KT 01/00 A3019 RMK A01 T00060001  RH  096%=      5-min Rain = 0
KCO1 141140Z 24006KT 01/00 A3019 RMK A01 T00060001  RH  096%=      5-min Rain = 0
KCO1 141141Z 24006KT 01/00 A3019 RMK A01 T00060001  RH  097%=      5-min Rain = 0
KCO1 141142Z 24006KT 01/00 A3019 RMK A01 T00060001  RH  097%=      5-min Rain = 0
KCO1 141143Z 24005KT 01/00 A3019 RMK A01 T00060002  RH  097%=      5-min Rain = 0
KCO1 141144Z 24006KT 01/00 A3019 RMK A01 T00060001  RH  097%=      5-min Rain = 0
KCO1 141145Z 24005KT 01/00 A3019 RMK A01 T00060001  RH  097%=      5-min Rain = 0
KCO1 141146Z 24005KT 01/00 A3019 RMK A01 T00060002  RH  097%=      5-min Rain = 0
KCO1 141147Z 24005KT 01/00 A3019 RMK A01 T00070002  RH  097%=      5-min Rain = 0
KCO1 141148Z 23003KT 01/00 A3019 RMK A01 T00070003  RH  097%=      5-min Rain = 0
KCO1 141149Z 24004KT 01/00 A3019 RMK A01 T00070002  RH  097%=      5-min Rain = 0
KCO1 141150Z 24004KT 01/00 A3019 RMK A01 T00070002  RH  097%=      5-min Rain = 0
KCO1 141151Z 24004KT 01/00 A3019 RMK A01 T00070003  RH  097%=      5-min Rain = 0
KCO1 141152Z 25004KT 01/00 A3019 RMK A01 T00070002  RH  097%=      5-min Rain = 0
KCO1 141153Z 25005KT 01/00 A3019 RMK A01 T00070002  RH  097%=      5-min Rain = 0
KCO1 141154Z 25005KT 01/00 A3019 RMK A01 T00070002  RH  097%=      5-min Rain = 0
KCO1 141155Z 26005KT 01/00 A3019 RMK A01 T00070002  RH  096%=      5-min Rain = 0
KCO1 141156Z 26004KT 01/00 A302 RMK A01 T00070002  RH  096%=      5-min Rain = 0
KCO1 141157Z 27002KT 01/00 A302 RMK A01 T00070002  RH  096%=      5-min Rain = 0
KCO1 141158Z 26003KT 01/00 A302 RMK A01 T00060001  RH  096%=      5-min Rain = 0
KCO1 141159Z 25004KT 01/00 A302 RMK A01 T00060001  RH  096%=      5-min Rain = 0
KCO1 141200Z 25003KT 01/00 A302 RMK A01 T00060001  RH  097%=      5-min Rain = 0
KCO1 141201Z 25003KT 01/00 A302 RMK A01 T00070002  RH  097%=      5-min Rain = 0
KCO1 141202Z 26004KT 01/00 A302 RMK A01 T00070002  RH  097%=      5-min Rain = 0
KCO1 141203Z 26003KT 01/00 A302 RMK A01 T00070002  RH  096%=      5-min Rain = 0
KCO1 141204Z 26003KT 01/00 A302 RMK A01 T00070002  RH  096%=      5-min Rain = 0
KCO1 141205Z 26004KT 01/00 A302 RMK A01 T00060001  RH  096%=      5-min Rain = 0
KCO1 141206Z 26003KT 01/00 A302 RMK A01 T00070002  RH  096%=      5-min Rain = 0
KCO1 141207Z 26003KT 01/00 A302 RMK A01 T00060001  RH  096%=      5-min Rain = 0
KCO1 141208Z 26003KT 01/00 A302 RMK A01 T00070002  RH  096%=      5-min Rain = 0
KCO1 141209Z 26003KT 01/00 A302 RMK A01 T00070002  RH  096%=      5-min Rain = 0
KCO1 141210Z 26003KT 01/00 A302 RMK A01 T00070002  RH  096%=      5-min Rain = 0
KCO1 141211Z 26003KT 01/00 A302 RMK A01 T00070002  RH  096%=      5-min Rain = 0
KCO1 141212Z 26003KT 01/00 A302 RMK A01 T00070001  RH  096%=      5-min Rain = 0
KCO1 141213Z 26003KT 01/00 A302 RMK A01 T00070001  RH  096%=      5-min Rain = 0
KCO1 141214Z 26003KT 01/00 A3021 RMK A01 T00060001  RH  096%=      5-min Rain = 0
KCO1 141215Z 26003KT 01/00 A3021 RMK A01 T00060000  RH  096%=      5-min Rain = 0
KCO1 141216Z 26004KT 01/00 A3021 RMK A01 T000500-0  RH  096%=      5-min Rain = 0
KCO1 141217Z 26004KT 01/00 A3021 RMK A01 T00050000  RH  096%=      5-min Rain = 0
KCO1 141218Z 26004KT 01/00 A3021 RMK A01 T00060001  RH  096%=      5-min Rain = 0
KCO1 141219Z 26003KT 01/00 A3021 RMK A01 T00060001  RH  096%=      5-min Rain = 0
KCO1 141220Z 26004KT 01/00 A3021 RMK A01 T00060001  RH  096%=      5-min Rain = 0
KCO1 141221Z 26004KT 01/00 A3021 RMK A01 T00060001  RH  096%=      5-min Rain = 0
KCO1 141222Z 26003KT 01/00 A3021 RMK A01 T00060001  RH  096%=      5-min Rain = 0
KCO1 141223Z 25003KT 01/00 A3021 RMK A01 T00060001  RH  096%=      5-min Rain = 0
KCO1 141224Z 24003KT 01/00 A3021 RMK A01 T00060001  RH  096%=      5-min Rain = 0
KCO1 141225Z 23002KT 01/00 A3021 RMK A01 T00060001  RH  096%=      5-min Rain = 0
KCO1 141226Z 22002KT 01/00 A3021 RMK A01 T00060001  RH  096%=      5-min Rain = 0
KCO1 141227Z 21002KT 01/M00 A3021 RMK A01 T00051001  RH  096%=      5-min Rain = 0
KCO1 141228Z 21004KT 00/M00 A3021 RMK A01 T00031002  RH  096%=      5-min Rain = 0
KCO1 141229Z 21004KT 00/M00 A3021 RMK A01 T00031003  RH  096%=      5-min Rain = 0
KCO1 141230Z 21003KT 00/M00 A3022 RMK A01 T00021004  RH  096%=      5-min Rain = 0
KCO1 141231Z 22004KT 00/M00 A3022 RMK A01 T00021004  RH  096%=      5-min Rain = 0
KCO1 141232Z 22003KT 00/M01 A3022 RMK A01 T00011005  RH  096%=      5-min Rain = 0
KCO1 141233Z 22003KT 00/M01 A3022 RMK A01 T00011005  RH  096%=      5-min Rain = 0
KCO1 141234Z 22003KT 00/01 A3022 RMK A01 T00-000-6  RH  096%=      5-min Rain = 0
KCO1 141235Z 23004KT M00/M01 A3022 RMK A01 T10011007  RH  096%=      5-min Rain = 0
KCO1 141236Z 23004KT 00/01 A3022 RMK A01 T00-000-6  RH  096%=      5-min Rain = 0
KCO1 141237Z 23004KT M00/M01 A3022 RMK A01 T10011006  RH  096%=      5-min Rain = 0
KCO1 141238Z 22004KT M00/M01 A3022 RMK A01 T10011007  RH  096%=      5-min Rain = 0
KCO1 141239Z 22004KT M00/M01 A3022 RMK A01 T10011007  RH  096%=      5-min Rain = 0
KCO1 141240Z 22003KT M00/M01 A3022 RMK A01 T10011007  RH  096%=      5-min Rain = 0
KCO1 141241Z 22004KT M00/M01 A3022 RMK A01 T10011007  RH  096%=      5-min Rain = 0
KCO1 141242Z 22004KT M00/M01 A3022 RMK A01 T10011007  RH  096%=      5-min Rain = 0
KCO1 141243Z 21004KT M00/M01 A3022 RMK A01 T10011007  RH  096%=      5-min Rain = 0
KCO1 141244Z 21004KT M00/M01 A3022 RMK A01 T10011007  RH  096%=      5-min Rain = 0
KCO1 141245Z 22004KT M00/M01 A3022 RMK A01 T10021007  RH  096%=      5-min Rain = 0
KCO1 141246Z 21004KT M00/M01 A3022 RMK A01 T10021008  RH  096%=      5-min Rain = 0
KCO1 141247Z 21005KT M00/M01 A3022 RMK A01 T10031009  RH  096%=      5-min Rain = 0
KCO1 141248Z 21005KT M00/M01 A3022 RMK A01 T10031009  RH  096%=      5-min Rain = 0
KCO1 141249Z 21005KT M00/M01 A3022 RMK A01 T10031009  RH  096%=      5-min Rain = 0
KCO1 141250Z 21005KT M00/M01 A3022 RMK A01 T10031009  RH  096%=      5-min Rain = 0
KCO1 141251Z 21005KT M00/M01 A3023 RMK A01 T10031009  RH  096%=      5-min Rain = 0
KCO1 141252Z 21005KT M00/M01 A3023 RMK A01 T10031009  RH  096%=      5-min Rain = 0
KCO1 141253Z 21004KT M00/M01 A3023 RMK A01 T10031009  RH  096%=      5-min Rain = 0
KCO1 141254Z 21005KT M00/M01 A3023 RMK A01 T10031009  RH  096%=      5-min Rain = 0
KCO1 141255Z 21005KT M00/M01 A3023 RMK A01 T10031008  RH  096%=      5-min Rain = 0
KCO1 141256Z 22006KT M00/M01 A3023 RMK A01 T10031009  RH  096%=      5-min Rain = 0
KCO1 141257Z 23006KT M00/M01 A3023 RMK A01 T10031009  RH  096%=      5-min Rain = 0
KCO1 141258Z 23006KT M00/M01 A3023 RMK A01 T10031009  RH  096%=      5-min Rain = 0
KCO1 141259Z 23005KT M00/M01 A3023 RMK A01 T10031008  RH  096%=      5-min Rain = 0
KCO1 141300Z 23005KT M00/M01 A3023 RMK A01 T10021008  RH  096%=      5-min Rain = 0
KCO1 141301Z 22005KT M00/M01 A3023 RMK A01 T10021008  RH  096%=      5-min Rain = 0
KCO1 141302Z 22004KT M00/M01 A3024 RMK A01 T10021007  RH  096%=      5-min Rain = 0
KCO1 141303Z 23005KT M00/M01 A3024 RMK A01 T10011007  RH  096%=      5-min Rain = 0
KCO1 141304Z 22005KT M00/M01 A3024 RMK A01 T10011007  RH  096%=      5-min Rain = 0
KCO1 141305Z 23004KT M00/M01 A3024 RMK A01 T10011007  RH  096%=      5-min Rain = 0
KCO1 141306Z 23005KT M00/M01 A3024 RMK A01 T10011007  RH  096%=      5-min Rain = 0
KCO1 141307Z 23005KT M00/M01 A3024 RMK A01 T10021007  RH  096%=      5-min Rain = 0
KCO1 141308Z 23005KT M00/M01 A3024 RMK A01 T10011007  RH  096%=      5-min Rain = 0
KCO1 141309Z 23005KT M00/M01 A3024 RMK A01 T10021007  RH  096%=      5-min Rain = 0
KCO1 141310Z 23006KT M00/M01 A3024 RMK A01 T10011007  RH  096%=      5-min Rain = 0
KCO1 141311Z 23005KT M00/M01 A3024 RMK A01 T10011007  RH  096%=      5-min Rain = 0
KCO1 141312Z 24006KT M00/M01 A3024 RMK A01 T10011007  RH  096%=      5-min Rain = 0
KCO1 141313Z 24006KT M00/M01 A3024 RMK A01 T10011006  RH  096%=      5-min Rain = 0
KCO1 141314Z 24005KT M00/M01 A3024 RMK A01 T10011006  RH  096%=      5-min Rain = 0
KCO1 141315Z 24005KT 00/01 A3024 RMK A01 T00-000-6  RH  096%=      5-min Rain = 0
KCO1 141316Z 25005KT M00/M01 A3024 RMK A01 T10011006  RH  096%=      5-min Rain = 0
KCO1 141317Z 25005KT 00/01 A3025 RMK A01 T00-000-6  RH  096%=      5-min Rain = 0
KCO1 141318Z 25005KT 00/01 A3025 RMK A01 T000000-5  RH  096%=      5-min Rain = 0
KCO1 141319Z 25005KT 00/01 A3025 RMK A01 T000000-5  RH  096%=      5-min Rain = 0
KCO1 141320Z 25005KT 00/M00 A3025 RMK A01 T00011004  RH  096%=      5-min Rain = 0
KCO1 141321Z 26005KT 00/M00 A3025 RMK A01 T00011004  RH  096%=      5-min Rain = 0
KCO1 141322Z 26004KT 00/M00 A3025 RMK A01 T00031002  RH  096%=      5-min Rain = 0
KCO1 141323Z 26004KT 00/M00 A3025 RMK A01 T00041001  RH  097%=      5-min Rain = 0
KCO1 141324Z 26004KT 01/00 A3025 RMK A01 T00050000  RH  097%=      5-min Rain = 0
KCO1 141325Z 26004KT 01/00 A3025 RMK A01 T00060001  RH  097%=      5-min Rain = 0
KCO1 141326Z 26004KT 01/00 A3025 RMK A01 T00060002  RH  097%=      5-min Rain = 0
KCO1 141327Z 26004KT 01/00 A3025 RMK A01 T00070002  RH  097%=      5-min Rain = 0
KCO1 141328Z 26004KT 01/00 A3026 RMK A01 T00070002  RH  096%=      5-min Rain = 0
KCO1 141329Z 26004KT 01/00 A3026 RMK A01 T00070002  RH  096%=      5-min Rain = 0
KCO1 141330Z 27004KT 01/00 A3026 RMK A01 T00070002  RH  096%=      5-min Rain = 0
KCO1 141331Z 27004KT 01/00 A3026 RMK A01 T00070002  RH  096%=      5-min Rain = 0
KCO1 141332Z 27004KT 01/00 A3026 RMK A01 T00070002  RH  096%=      5-min Rain = 0
KCO1 141333Z 27005KT 01/00 A3026 RMK A01 T00070002  RH  096%=      5-min Rain = 0
KCO1 141334Z 28004KT 01/00 A3026 RMK A01 T00070002  RH  096%=      5-min Rain = 0
KCO1 141335Z 27004KT 01/00 A3026 RMK A01 T00070001  RH  096%=      5-min Rain = 0
KCO1 141336Z 28004KT 01/00 A3026 RMK A01 T00070001  RH  096%=      5-min Rain = 0
KCO1 141337Z 28004KT 01/00 A3026 RMK A01 T00070000  RH  096%=      5-min Rain = 0
KCO1 141338Z 29005KT 01/00 A3026 RMK A01 T000600-0  RH  095%=      5-min Rain = 0
KCO1 141339Z 28005KT 01/M00 A3026 RMK A01 T00061001  RH  095%=      5-min Rain = 0
KCO1 141340Z 28005KT 01/M00 A3026 RMK A01 T00061001  RH  095%=      5-min Rain = 0
KCO1 141341Z 28004KT 01/M00 A3026 RMK A01 T00061001  RH  095%=      5-min Rain = 0
KCO1 141342Z 28005KT 01/00 A3027 RMK A01 T000600-0  RH  095%=      5-min Rain = 0
KCO1 141343Z 27005KT 01/00 A3027 RMK A01 T00070000  RH  095%=      5-min Rain = 0
KCO1 141344Z 27004KT 01/00 A3027 RMK A01 T000700-0  RH  095%=      5-min Rain = 0
KCO1 141345Z 27004KT 01/00 A3027 RMK A01 T00070000  RH  095%=      5-min Rain = 0
KCO1 141346Z 27004KT 01/00 A3027 RMK A01 T00080001  RH  095%=      5-min Rain = 0
KCO1 141347Z 27004KT 01/00 A3027 RMK A01 T00080001  RH  095%=      5-min Rain = 0
KCO1 141348Z 28004KT 01/00 A3027 RMK A01 T00090002  RH  095%=      5-min Rain = 0
KCO1 141349Z 28004KT 01/00 A3027 RMK A01 T00090002  RH  095%=      5-min Rain = 0
KCO1 141350Z 28005KT 01/00 A3027 RMK A01 T00090002  RH  095%=      5-min Rain = 0
KCO1 141351Z 28005KT 01/00 A3027 RMK A01 T00100002  RH  095%=      5-min Rain = 0
KCO1 141352Z 28005KT 01/00 A3027 RMK A01 T00100003  RH  095%=      5-min Rain = 0
KCO1 141353Z 27005KT 01/00 A3027 RMK A01 T00110004  RH  095%=      5-min Rain = 0
KCO1 141354Z 28006KT 01/00 A3028 RMK A01 T00110004  RH  095%=      5-min Rain = 0
KCO1 141355Z 28006KT 01/01 A3028 RMK A01 T00120005  RH  095%=      5-min Rain = 0
KCO1 141356Z 28005KT 01/01 A3028 RMK A01 T00130006  RH  095%=      5-min Rain = 0
KCO1 141357Z 28004KT 01/01 A3028 RMK A01 T00140007  RH  095%=      5-min Rain = 0
KCO1 141358Z 29004KT 01/01 A3028 RMK A01 T00140007  RH  095%=      5-min Rain = 0
KCO1 141359Z 28004KT 01/01 A3028 RMK A01 T00140007  RH  095%=      5-min Rain = 0
KCO1 141400Z 27004KT 02/01 A3028 RMK A01 T00150007  RH  095%=      5-min Rain = 0
KCO1 141401Z 28005KT 02/01 A3028 RMK A01 T00150007  RH  095%=      5-min Rain = 0
KCO1 141402Z 28004KT 02/01 A3028 RMK A01 T00160008  RH  095%=      5-min Rain = 0
KCO1 141403Z 28004KT 02/01 A3028 RMK A01 T00170009  RH  095%=      5-min Rain = 0
KCO1 141404Z 28004KT 02/01 A3029 RMK A01 T00180010  RH  094%=      5-min Rain = 0
KCO1 141405Z 29004KT 02/01 A3029 RMK A01 T00180010  RH  094%=      5-min Rain = 0
KCO1 141406Z 29005KT 02/01 A3029 RMK A01 T00190010  RH  094%=      5-min Rain = 0
KCO1 141407Z 28004KT 02/01 A3029 RMK A01 T00200011  RH  094%=      5-min Rain = 0
KCO1 141408Z 28004KT 02/01 A3029 RMK A01 T00210012  RH  094%=      5-min Rain = 0
KCO1 141409Z 28004KT 02/01 A3029 RMK A01 T00220013  RH  094%=      5-min Rain = 0
KCO1 141410Z 28003KT 02/01 A3029 RMK A01 T00220013  RH  094%=      5-min Rain = 0
KCO1 141411Z 29004KT 02/01 A3029 RMK A01 T00230014  RH  094%=      5-min Rain = 0
KCO1 141412Z 29004KT 02/01 A3029 RMK A01 T00240014  RH  094%=      5-min Rain = 0
KCO1 141413Z 28005KT 02/02 A3029 RMK A01 T00240015  RH  094%=      5-min Rain = 0
KCO1 141414Z 28005KT 03/02 A303 RMK A01 T00250015  RH  093%=      5-min Rain = 0
KCO1 141415Z 28005KT 03/02 A303 RMK A01 T00250015  RH  093%=      5-min Rain = 0
KCO1 141416Z 28005KT 03/02 A303 RMK A01 T00260016  RH  093%=      5-min Rain = 0
KCO1 141417Z 28004KT 03/02 A303 RMK A01 T00260016  RH  093%=      5-min Rain = 0
KCO1 141418Z 28004KT 03/02 A303 RMK A01 T00270017  RH  093%=      5-min Rain = 0
KCO1 141419Z 28005KT 03/02 A303 RMK A01 T00280017  RH  093%=      5-min Rain = 0
KCO1 141420Z 29005KT 03/02 A303 RMK A01 T00280017  RH  092%=      5-min Rain = 0
KCO1 141421Z 29005KT 03/02 A303 RMK A01 T00290018  RH  092%=      5-min Rain = 0
KCO1 141422Z 29005KT 03/02 A303 RMK A01 T00300018  RH  092%=      5-min Rain = 0
KCO1 141423Z 29006KT 03/02 A303 RMK A01 T00310019  RH  092%=      5-min Rain = 0
KCO1 141424Z 30006KT 03/02 A303 RMK A01 T00310020  RH  092%=      5-min Rain = 0
KCO1 141425Z 30006KT 03/02 A303 RMK A01 T00320020  RH  092%=      5-min Rain = 0
KCO1 141426Z 30004KT 03/02 A3031 RMK A01 T00330021  RH  092%=      5-min Rain = 0
KCO1 141427Z 31005KT 03/02 A3031 RMK A01 T00340021  RH  092%=      5-min Rain = 0
KCO1 141428Z 30005KT 03/02 A3031 RMK A01 T00340021  RH  091%=      5-min Rain = 0
KCO1 141429Z 30005KT 04/02 A3031 RMK A01 T00350022  RH  091%=      5-min Rain = 0
KCO1 141430Z 30006KT 04/02 A3031 RMK A01 T00360022  RH  091%=      5-min Rain = 0
KCO1 141431Z 30006KT 04/02 A3031 RMK A01 T00360023  RH  091%=      5-min Rain = 0
KCO1 141432Z 30007KT 04/02 A3031 RMK A01 T00370023  RH  091%=      5-min Rain = 0
KCO1 141433Z 31006KT 04/02 A3031 RMK A01 T00380023  RH  090%=      5-min Rain = 0
KCO1 141434Z 30005KT 04/02 A3031 RMK A01 T00390024  RH  090%=      5-min Rain = 0
KCO1 141435Z 30006KT 04/03 A3031 RMK A01 T00400025  RH  090%=      5-min Rain = 0
KCO1 141436Z 31005KT 04/03 A3031 RMK A01 T00400025  RH  090%=      5-min Rain = 0
KCO1 141437Z 30004KT 04/03 A3031 RMK A01 T00410025  RH  089%=      5-min Rain = 0
KCO1 141438Z 30005KT 04/03 A3031 RMK A01 T00420026  RH  089%=      5-min Rain = 0
KCO1 141439Z 30006KT 04/03 A3032 RMK A01 T00430026  RH  089%=      5-min Rain = 0
KCO1 141440Z 30007KT 04/03 A3032 RMK A01 T00430026  RH  088%=      5-min Rain = 0
KCO1 141441Z 30006KT 04/03 A3032 RMK A01 T00430025  RH  088%=      5-min Rain = 0
KCO1 141442Z 30006KT 04/03 A3032 RMK A01 T00440025  RH  088%=      5-min Rain = 0
KCO1 141443Z 30007KT 04/03 A3032 RMK A01 T00440025  RH  087%=      5-min Rain = 0
KCO1 141444Z 30007KT 04/02 A3032 RMK A01 T00440024  RH  087%=      5-min Rain = 0
KCO1 141445Z 31006KT 04/02 A3032 RMK A01 T00440024  RH  087%=      5-min Rain = 0
KCO1 141446Z 31005KT 05/02 A3032 RMK A01 T00450024  RH  086%=      5-min Rain = 0
KCO1 141447Z 30004KT 05/02 A3032 RMK A01 T00450023  RH  086%=      5-min Rain = 0
KCO1 141448Z 31006KT 05/03 A3032 RMK A01 T00460025  RH  086%=      5-min Rain = 0
KCO1 141449Z 30005KT 05/02 A3032 RMK A01 T00460024  RH  086%=      5-min Rain = 0
KCO1 141450Z 30005KT 05/02 A3032 RMK A01 T00460024  RH  086%=      5-min Rain = 0
KCO1 141451Z 31006KT 05/02 A3032 RMK A01 T00460024  RH  086%=      5-min Rain = 0
KCO1 141452Z 31005KT 05/03 A3033 RMK A01 T00470025  RH  085%=      5-min Rain = 0
KCO1 141453Z 31005KT 05/03 A3033 RMK A01 T00480025  RH  085%=      5-min Rain = 0
KCO1 141454Z 32006KT 05/03 A3033 RMK A01 T00480025  RH  085%=      5-min Rain = 0
KCO1 141455Z 31005KT 05/03 A3033 RMK A01 T00480025  RH  085%=      5-min Rain = 0
KCO1 141456Z 31006KT 05/03 A3033 RMK A01 T00490026  RH  085%=      5-min Rain = 0
KCO1 141457Z 31006KT 05/03 A3033 RMK A01 T00500026  RH  085%=      5-min Rain = 0
KCO1 141458Z 31005KT 05/03 A3033 RMK A01 T00500025  RH  084%=      5-min Rain = 0
KCO1 141459Z 31006KT 05/03 A3033 RMK A01 T00500025  RH  084%=      5-min Rain = 0
KCO1 141500Z 32006KT 05/03 A3033 RMK A01 T00510025  RH  084%=      5-min Rain = 0
KCO1 141501Z 31005KT 05/02 A3033 RMK A01 T00510024  RH  083%=      5-min Rain = 0
KCO1 141502Z 32005KT 05/03 A3033 RMK A01 T00510025  RH  083%=      5-min Rain = 0
KCO1 141503Z 31005KT 05/02 A3033 RMK A01 T00510024  RH  083%=      5-min Rain = 0
KCO1 141504Z 31005KT 05/02 A3033 RMK A01 T00510023  RH  082%=      5-min Rain = 0
KCO1 141505Z 32004KT 05/02 A3033 RMK A01 T00510024  RH  082%=      5-min Rain = 0
KCO1 141506Z 31005KT 05/03 A3034 RMK A01 T00520026  RH  083%=      5-min Rain = 0
KCO1 141507Z 32005KT 05/03 A3034 RMK A01 T00530026  RH  083%=      5-min Rain = 0
KCO1 141508Z 32007KT 05/03 A3034 RMK A01 T00530025  RH  082%=      5-min Rain = 0
KCO1 141509Z 32005KT 05/02 A3034 RMK A01 T00530024  RH  081%=      5-min Rain = 0
KCO1 141510Z 32006KT 05/02 A3034 RMK A01 T00530023  RH  081%=      5-min Rain = 0
KCO1 141511Z 32006KT 05/02 A3034 RMK A01 T00530023  RH  081%=      5-min Rain = 0
KCO1 141512Z 31006KT 05/02 A3034 RMK A01 T00530022  RH  080%=      5-min Rain = 0
KCO1 141513Z 31006KT 05/02 A3034 RMK A01 T00530022  RH  080%=      5-min Rain = 0
KCO1 141514Z 31006KT 05/02 A3034 RMK A01 T00540023  RH  080%=      5-min Rain = 0
KCO1 141515Z 32006KT 05/02 A3034 RMK A01 T00540022  RH  080%=      5-min Rain = 0
KCO1 141516Z 32005KT 05/02 A3034 RMK A01 T00540022  RH  080%=      5-min Rain = 0
KCO1 141517Z 32005KT 06/02 A3035 RMK A01 T00550024  RH  080%=      5-min Rain = 0
KCO1 141518Z 33003KT 06/03 A3034 RMK A01 T00560025  RH  081%=      5-min Rain = 0
KCO1 141519Z 32005KT 06/03 A3035 RMK A01 T00570027  RH  081%=      5-min Rain = 0
KCO1 141520Z 33006KT 06/03 A3035 RMK A01 T00580025  RH  079%=      5-min Rain = 0
KCO1 141521Z 32004KT 06/02 A3035 RMK A01 T00580024  RH  079%=      5-min Rain = 0
KCO1 141522Z 32004KT 06/03 A3035 RMK A01 T00580025  RH  079%=      5-min Rain = 0
KCO1 141523Z 32003KT 06/03 A3035 RMK A01 T00590027  RH  079%=      5-min Rain = 0
KCO1 141524Z 33003KT 06/03 A3035 RMK A01 T00610028  RH  079%=      5-min Rain = 0
KCO1 141525Z 33004KT 06/03 A3035 RMK A01 T00610026  RH  078%=      5-min Rain = 0
KCO1 141526Z 32004KT 06/02 A3035 RMK A01 T00610024  RH  077%=      5-min Rain = 0
KCO1 141527Z 32003KT 06/03 A3035 RMK A01 T00620025  RH  077%=      5-min Rain = 0
KCO1 141528Z 34004KT 06/03 A3035 RMK A01 T00630027  RH  078%=      5-min Rain = 0
KCO1 141529Z 34004KT 06/03 A3035 RMK A01 T00640027  RH  077%=      5-min Rain = 0
KCO1 141530Z 34005KT 06/03 A3035 RMK A01 T00640027  RH  077%=      5-min Rain = 0
KCO1 141531Z 33004KT 06/03 A3035 RMK A01 T00640025  RH  076%=      5-min Rain = 0
KCO1 141532Z 33004KT 07/03 A3035 RMK A01 T00650026  RH  076%=      5-min Rain = 0
KCO1 141533Z 34005KT 07/03 A3035 RMK A01 T00660028  RH  077%=      5-min Rain = 0
KCO1 141534Z 34005KT 07/03 A3036 RMK A01 T00670027  RH  076%=      5-min Rain = 0
KCO1 141535Z 33005KT 07/03 A3036 RMK A01 T00670026  RH  075%=      5-min Rain = 0
KCO1 141536Z 33003KT 07/02 A3036 RMK A01 T00670024  RH  074%=      5-min Rain = 0
KCO1 141537Z 33003KT 07/03 A3036 RMK A01 T00680025  RH  074%=      5-min Rain = 0
KCO1 141538Z 34003KT 07/03 A3036 RMK A01 T00700028  RH  075%=      5-min Rain = 0
KCO1 141539Z 35004KT 07/03 A3036 RMK A01 T00710026  RH  073%=      5-min Rain = 0
KCO1 141540Z 36004KT 07/02 A3036 RMK A01 T00710024  RH  072%=      5-min Rain = 0
KCO1 141541Z 34005KT 07/02 A3036 RMK A01 T00710022  RH  071%=      5-min Rain = 0
KCO1 141542Z 33005KT 07/02 A3036 RMK A01 T00720024  RH  071%=      5-min Rain = 0
KCO1 141543Z 34005KT 07/02 A3036 RMK A01 T00730024  RH  071%=      5-min Rain = 0
KCO1 141544Z 34005KT 07/02 A3036 RMK A01 T00730022  RH  070%=      5-min Rain = 0
KCO1 141545Z 33004KT 07/02 A3036 RMK A01 T00730023  RH  070%=      5-min Rain = 0
KCO1 141546Z 00003KT 07/02 A3036 RMK A01 T00730023  RH  071%=      5-min Rain = 0
KCO1 141547Z 35004KT 07/03 A3036 RMK A01 T00740025  RH  071%=      5-min Rain = 0
KCO1 141548Z 34004KT 08/03 A3036 RMK A01 T00760025  RH  070%=      5-min Rain = 0
KCO1 141549Z 01003KT 08/03 A3036 RMK A01 T00770026  RH  070%=      5-min Rain = 0
KCO1 141550Z 36004KT 08/03 A3037 RMK A01 T00790027  RH  070%=      5-min Rain = 0
KCO1 141551Z 35004KT 08/03 A3037 RMK A01 T00800025  RH  068%=      5-min Rain = 0
KCO1 141552Z 35004KT 08/02 A3037 RMK A01 T00800023  RH  068%=      5-min Rain = 0
KCO1 141553Z 36003KT 08/02 A3037 RMK A01 T00790023  RH  068%=      5-min Rain = 0
KCO1 141554Z 36006KT 08/02 A3037 RMK A01 T00790023  RH  067%=      5-min Rain = 0
KCO1 141555Z 01005KT 08/02 A3037 RMK A01 T00800021  RH  067%=      5-min Rain = 0
KCO1 141556Z 01005KT 08/02 A3037 RMK A01 T00810021  RH  066%=      5-min Rain = 0
KCO1 141557Z 01004KT 08/02 A3037 RMK A01 T00810021  RH  066%=      5-min Rain = 0
KCO1 141558Z 34004KT 08/02 A3037 RMK A01 T00820022  RH  066%=      5-min Rain = 0
KCO1 141559Z 35006KT 08/02 A3037 RMK A01 T00830023  RH  066%=      5-min Rain = 0
KCO1 141600Z 00006KT 08/02 A3037 RMK A01 T00830022  RH  065%=      5-min Rain = 0
KCO1 141601Z 01005KT 08/02 A3037 RMK A01 T00840023  RH  065%=      5-min Rain = 0
KCO1 141602Z 00006KT 08/02 A3037 RMK A01 T00840022  RH  065%=      5-min Rain = 0
KCO1 141603Z 01006KT 09/02 A3037 RMK A01 T00850022  RH  065%=      5-min Rain = 0
KCO1 141604Z 01004KT 08/02 A3037 RMK A01 T00840020  RH  064%=      5-min Rain = 0
KCO1 141605Z 01004KT 08/02 A3037 RMK A01 T00840020  RH  064%=      5-min Rain = 0
KCO1 141606Z 03004KT 08/02 A3037 RMK A01 T00840022  RH  065%=      5-min Rain = 0
KCO1 141607Z 03006KT 09/02 A3037 RMK A01 T00860022  RH  064%=      5-min Rain = 0
KCO1 141608Z 04006KT 09/02 A3037 RMK A01 T00870023  RH  064%=      5-min Rain = 0
KCO1 141609Z 03008KT 09/02 A3037 RMK A01 T00870022  RH  063%=      5-min Rain = 0
KCO1 141610Z 02007KT 09/02 A3037 RMK A01 T00880020  RH  062%=      5-min Rain = 0
KCO1 141611Z 02006KT 09/02 A3037 RMK A01 T00880021  RH  063%=      5-min Rain = 0
KCO1 141612Z 02005KT 09/02 A3037 RMK A01 T00880020  RH  063%=      5-min Rain = 0
KCO1 141613Z 02005KT 09/02 A3037 RMK A01 T00870020  RH  063%=      5-min Rain = 0
KCO1 141614Z 04005KT 09/02 A3037 RMK A01 T00870020  RH  063%=      5-min Rain = 0
KCO1 141615Z 03007KT 09/02 A3037 RMK A01 T00890021  RH  062%=      5-min Rain = 0
KCO1 141616Z 03006KT 09/02 A3037 RMK A01 T00900021  RH  062%=      5-min Rain = 0
KCO1 141617Z 05006KT 09/02 A3037 RMK A01 T00910019  RH  061%=      5-min Rain = 0
KCO1 141618Z 05006KT 09/02 A3037 RMK A01 T00910019  RH  060%=      5-min Rain = 0
KCO1 141619Z 04006KT 09/02 A3037 RMK A01 T00920018  RH  060%=      5-min Rain = 0
KCO1 141620Z 02007KT 09/02 A3037 RMK A01 T00920019  RH  061%=      5-min Rain = 0
KCO1 141621Z 02010KT 09/02 A3038 RMK A01 T00920016  RH  059%=      5-min Rain = 0
KCO1 141622Z 04011KT 09/02 A3038 RMK A01 T00930016  RH  059%=      5-min Rain = 0
KCO1 141623Z 04010KT 10/02 A3038 RMK A01 T00950015  RH  058%=      5-min Rain = 0
KCO1 141624Z 04009KT 10/02 A3038 RMK A01 T00960015  RH  057%=      5-min Rain = 0
KCO1 141625Z 03009KT 10/01 A3038 RMK A01 T00970014  RH  056%=      5-min Rain = 0
KCO1 141626Z 03008KT 10/01 A3038 RMK A01 T00960012  RH  055%=      5-min Rain = 0
KCO1 141627Z 03008KT 10/01 A3038 RMK A01 T00950012  RH  056%=      5-min Rain = 0
KCO1 141628Z 04009KT 10/01 A3038 RMK A01 T00950014  RH  057%=      5-min Rain = 0
KCO1 141629Z 03006KT 10/01 A3038 RMK A01 T00960014  RH  057%=      5-min Rain = 0
KCO1 141630Z 02007KT 10/01 A3038 RMK A01 T00970014  RH  056%=      5-min Rain = 0
KCO1 141631Z 03007KT 10/02 A3038 RMK A01 T00980016  RH  057%=      5-min Rain = 0
KCO1 141632Z 04006KT 10/02 A3038 RMK A01 T00980015  RH  056%=      5-min Rain = 0
KCO1 141633Z 05007KT 10/02 A3038 RMK A01 T01000017  RH  056%=      5-min Rain = 0
KCO1 141634Z 03007KT 10/02 A3038 RMK A01 T01020017  RH  056%=      5-min Rain = 0
KCO1 141635Z 04007KT 10/02 A3038 RMK A01 T01030016  RH  055%=      5-min Rain = 0
KCO1 141636Z 05007KT 10/02 A3038 RMK A01 T01020015  RH  055%=      5-min Rain = 0
KCO1 141637Z 04007KT 10/02 A3038 RMK A01 T01020015  RH  054%=      5-min Rain = 0
KCO1 141638Z 04006KT 10/01 A3038 RMK A01 T01030013  RH  053%=      5-min Rain = 0
KCO1 141639Z 04008KT 10/01 A3038 RMK A01 T01030013  RH  053%=      5-min Rain = 0
KCO1 141640Z 04008KT 10/01 A3038 RMK A01 T01040013  RH  053%=      5-min Rain = 0
KCO1 141641Z 04009KT 10/01 A3038 RMK A01 T01040010  RH  052%=      5-min Rain = 0
KCO1 141642Z 04010KT 11/01 A3038 RMK A01 T01060011  RH  052%=      5-min Rain = 0
KCO1 141643Z 04010KT 11/01 A3038 RMK A01 T01060008  RH  050%=      5-min Rain = 0
KCO1 141644Z 05011KT 11/01 A3038 RMK A01 T01060007  RH  050%=      5-min Rain = 0
KCO1 141645Z 05010KT 11/01 A3038 RMK A01 T01070006  RH  049%=      5-min Rain = 0
KCO1 141646Z 05010KT 11/01 A3038 RMK A01 T01080009  RH  050%=      5-min Rain = 0
KCO1 141647Z 05009KT 11/01 A3039 RMK A01 T01090007  RH  049%=      5-min Rain = 0
KCO1 141648Z 04009KT 11/01 A3039 RMK A01 T01100008  RH  049%=      5-min Rain = 0
KCO1 141649Z 02011KT 11/01 A3039 RMK A01 T01100007  RH  049%=      5-min Rain = 0
KCO1 141650Z 03013KT 11/00 A3039 RMK A01 T01090004  RH  048%=      5-min Rain = 0
KCO1 141651Z 03011KT 11/00 A3039 RMK A01 T01070003  RH  049%=      5-min Rain = 0
KCO1 141652Z 03009KT 11/00 A3039 RMK A01 T01060003  RH  049%=      5-min Rain = 0
KCO1 141653Z 03010KT 11/01 A3039 RMK A01 T01070007  RH  050%=      5-min Rain = 0
KCO1 141654Z 03012KT 11/01 A3039 RMK A01 T01090005  RH  049%=      5-min Rain = 0
KCO1 141655Z 03011KT 11/00 A3039 RMK A01 T01090003  RH  048%=      5-min Rain = 0
KCO1 141656Z 04011KT 11/00 A3039 RMK A01 T01090003  RH  048%=      5-min Rain = 0
KCO1 141657Z 04012KT 11/00 A3039 RMK A01 T01090004  RH  048%=      5-min Rain = 0
KCO1 141658Z 04012KT 11/00 A3039 RMK A01 T01100002  RH  047%=      5-min Rain = 0
KCO1 141659Z 03013KT 11/00 A3039 RMK A01 T01100001  RH  047%=      5-min Rain = 0
KCO1 141700Z 03009KT 11/00 A3039 RMK A01 T01100004  RH  048%=      5-min Rain = 0
KCO1 141701Z 03012KT 11/00 A3039 RMK A01 T01110002  RH  047%=      5-min Rain = 0
KCO1 141702Z 03010KT 11/00 A3039 RMK A01 T01110001  RH  046%=      5-min Rain = 0
KCO1 141703Z 05010KT 11/00 A3039 RMK A01 T01120003  RH  047%=      5-min Rain = 0
KCO1 141704Z 06009KT 11/00 A3039 RMK A01 T01140002  RH  046%=      5-min Rain = 0
KCO1 141705Z 05007KT 11/M00 A3039 RMK A01 T01141001  RH  045%=      5-min Rain = 0
KCO1 141706Z 05009KT 12/00 A3039 RMK A01 T01150001  RH  045%=      5-min Rain = 0
KCO1 141707Z 04010KT 12/00 A3039 RMK A01 T01170004  RH  046%=      5-min Rain = 0
KCO1 141708Z 04010KT 12/01 A3039 RMK A01 T01180005  RH  046%=      5-min Rain = 0
KCO1 141709Z 05011KT 12/00 A3039 RMK A01 T01180003  RH  045%=      5-min Rain = 0
KCO1 141710Z 05010KT 12/00 A3039 RMK A01 T01180000  RH  044%=      5-min Rain = 0
KCO1 141711Z 04007KT 12/00 A3039 RMK A01 T01180000  RH  044%=      5-min Rain = 0
KCO1 141712Z 05008KT 12/M00 A3039 RMK A01 T01181002  RH  044%=      5-min Rain = 0
KCO1 141713Z 06008KT 12/M00 A3039 RMK A01 T01181001  RH  044%=      5-min Rain = 0
KCO1 141714Z 05009KT 12/M00 A3039 RMK A01 T01191001  RH  044%=      5-min Rain = 0
KCO1 141715Z 02008KT 12/00 A3039 RMK A01 T01190001  RH  044%=      5-min Rain = 0
KCO1 141716Z 02009KT 12/00 A3039 RMK A01 T01200001  RH  044%=      5-min Rain = 0
KCO1 141717Z 02008KT 12/M01 A3039 RMK A01 T01161006  RH  043%=      5-min Rain = 0
KCO1 141718Z 03012KT 12/M00 A3039 RMK A01 T01161002  RH  044%=      5-min Rain = 0
KCO1 141719Z 03011KT 12/M01 A3039 RMK A01 T01161005  RH  043%=      5-min Rain = 0
KCO1 141720Z 03010KT 12/M01 A3039 RMK A01 T01161005  RH  043%=      5-min Rain = 0
KCO1 141721Z 03010KT 12/M01 A3039 RMK A01 T01171005  RH  043%=      5-min Rain = 0
KCO1 141722Z 03009KT 12/M01 A3039 RMK A01 T01161010  RH  042%=      5-min Rain = 0
KCO1 141723Z 04008KT 12/M01 A3039 RMK A01 T01161006  RH  043%=      5-min Rain = 0
KCO1 141724Z 05010KT 12/M00 A3039 RMK A01 T01191002  RH  043%=      5-min Rain = 0
KCO1 141725Z 04012KT 12/M01 A3039 RMK A01 T01201007  RH  041%=      5-min Rain = 0
KCO1 141726Z 04011KT 12/M01 A3039 RMK A01 T01201012  RH  040%=      5-min Rain = 0
KCO1 141727Z 05011KT 12/M01 A3039 RMK A01 T01201012  RH  040%=      5-min Rain = 0
KCO1 141728Z 06011KT 12/M01 A3039 RMK A01 T01191013  RH  040%=      5-min Rain = 0
KCO1 141729Z 05009KT 12/M01 A3039 RMK A01 T01181012  RH  040%=      5-min Rain = 0
KCO1 141730Z 05008KT 12/M01 A3039 RMK A01 T01181011  RH  041%=      5-min Rain = 0
KCO1 141731Z 05009KT 12/M01 A3039 RMK A01 T01181011  RH  041%=      5-min Rain = 0
KCO1 141732Z 05011KT 12/M01 A3039 RMK A01 T01191010  RH  041%=      5-min Rain = 0
KCO1 141733Z 06011KT 12/M01 A3039 RMK A01 T01201009  RH  041%=      5-min Rain = 0
KCO1 141734Z 06010KT 12/M01 A3039 RMK A01 T01201010  RH  041%=      5-min Rain = 0
KCO1 141735Z 06008KT 12/M01 A3039 RMK A01 T01201010  RH  040%=      5-min Rain = 0
KCO1 141736Z 05006KT 12/M01 A3038 RMK A01 T01201013  RH  040%=      5-min Rain = 0
KCO1 141737Z 06009KT 12/M01 A3038 RMK A01 T01191009  RH  041%=      5-min Rain = 0
KCO1 141738Z 06010KT 12/M01 A3038 RMK A01 T01211009  RH  041%=      5-min Rain = 0
KCO1 141739Z 06010KT 12/M01 A3038 RMK A01 T01211010  RH  040%=      5-min Rain = 0
KCO1 141740Z 05010KT 12/M01 A3038 RMK A01 T01231008  RH  040%=      5-min Rain = 0
KCO1 141741Z 05012KT 12/M01 A3038 RMK A01 T01241008  RH  040%=      5-min Rain = 0
KCO1 141742Z 05010KT 12/M01 A3038 RMK A01 T01241010  RH  040%=      5-min Rain = 0
KCO1 141743Z 05012KT 12/M01 A3038 RMK A01 T01231008  RH  040%=      5-min Rain = 0
KCO1 141744Z 06009KT 12/M01 A3038 RMK A01 T01231009  RH  040%=      5-min Rain = 0
KCO1 141745Z 06009KT 12/M01 A3038 RMK A01 T01241010  RH  039%=      5-min Rain = 0
KCO1 141746Z 07007KT 12/M01 A3038 RMK A01 T01231013  RH  039%=      5-min Rain = 0
KCO1 141747Z 05007KT 12/M01 A3038 RMK A01 T01241010  RH  040%=      5-min Rain = 0
KCO1 141748Z 05008KT 13/M01 A3038 RMK A01 T01251012  RH  039%=      5-min Rain = 0
KCO1 141749Z 06010KT 12/M01 A3038 RMK A01 T01241012  RH  039%=      5-min Rain = 0
KCO1 141750Z 03007KT 12/M01 A3038 RMK A01 T01241009  RH  040%=      5-min Rain = 0
KCO1 141751Z 03007KT 12/M01 A3038 RMK A01 T01231011  RH  039%=      5-min Rain = 0
KCO1 141752Z 04007KT 12/M01 A3038 RMK A01 T01211012  RH  040%=      5-min Rain = 0
KCO1 141753Z 05007KT 12/M01 A3038 RMK A01 T01211009  RH  041%=      5-min Rain = 0
KCO1 141754Z 05010KT 12/M01 A3038 RMK A01 T01221008  RH  041%=      5-min Rain = 0
KCO1 141755Z 04009KT 12/M01 A3038 RMK A01 T01241008  RH  040%=      5-min Rain = 0
KCO1 141756Z 03009KT 12/M01 A3038 RMK A01 T01241013  RH  039%=      5-min Rain = 0
KCO1 141757Z 04010KT 12/M02 A3038 RMK A01 T01211015  RH  039%=      5-min Rain = 0
KCO1 141758Z 04012KT 12/M01 A3038 RMK A01 T01221011  RH  040%=      5-min Rain = 0
KCO1 141759Z 02010KT 12/M01 A3038 RMK A01 T01241012  RH  039%=      5-min Rain = 0
KCO1 141800Z 02009KT 12/M01 A3038 RMK A01 T01241013  RH  039%=      5-min Rain = 0
KCO1 141801Z 03007KT 12/M02 A3038 RMK A01 T01221016  RH  038%=      5-min Rain = 0
KCO1 141802Z 02005KT 12/M01 A3038 RMK A01 T01211013  RH  039%=      5-min Rain = 0
KCO1 141803Z 03006KT 12/M01 A3038 RMK A01 T01231009  RH  040%=      5-min Rain = 0
KCO1 141804Z 05007KT 13/M01 A3038 RMK A01 T01261008  RH  039%=      5-min Rain = 0
KCO1 141805Z 05005KT 13/M01 A3037 RMK A01 T01271011  RH  038%=      5-min Rain = 0
KCO1 141806Z 03007KT 13/M01 A3037 RMK A01 T01291007  RH  039%=      5-min Rain = 0
KCO1 141807Z 05009KT 13/M01 A3037 RMK A01 T01301006  RH  039%=      5-min Rain = 0
KCO1 141808Z 06009KT 13/M01 A3037 RMK A01 T01301010  RH  038%=      5-min Rain = 0
KCO1 141809Z 04007KT 13/M01 A3037 RMK A01 T01291014  RH  037%=      5-min Rain = 0
KCO1 141810Z 04008KT 13/M02 A3037 RMK A01 T01261017  RH  037%=      5-min Rain = 0
KCO1 141811Z 04012KT 13/M01 A3037 RMK A01 T01261012  RH  039%=      5-min Rain = 0
KCO1 141812Z 04009KT 13/M01 A3037 RMK A01 T01261014  RH  038%=      5-min Rain = 0
KCO1 141813Z 04004KT 13/M02 A3037 RMK A01 T01251015  RH  038%=      5-min Rain = 0
KCO1 141814Z 05010G15KT 13/M01 A3037 RMK A01 T01261012  RH  039%=      5-min Rain = 0
KCO1 141815Z 03012G17KT 13/M01 A3037 RMK A01 T01281009  RH  039%=      5-min Rain = 0
KCO1 141816Z 03010KT 13/M01 A3037 RMK A01 T01311006  RH  039%=      5-min Rain = 0
KCO1 141817Z 04009KT 13/M01 A3037 RMK A01 T01321010  RH  038%=      5-min Rain = 0
KCO1 141818Z 05008KT 13/M01 A3037 RMK A01 T01301014  RH  037%=      5-min Rain = 0
KCO1 141819Z 03008KT 13/M01 A3037 RMK A01 T01291014  RH  037%=      5-min Rain = 0
KCO1 141820Z 03009KT 13/M02 A3037 RMK A01 T01281016  RH  037%=      5-min Rain = 0
KCO1 141821Z 03008KT 13/M02 A3037 RMK A01 T01261019  RH  036%=      5-min Rain = 0
KCO1 141822Z 01008KT 12/M02 A3037 RMK A01 T01241019  RH  037%=      5-min Rain = 0
KCO1 141823Z 03009KT 13/M02 A3037 RMK A01 T01251016  RH  038%=      5-min Rain = 0
KCO1 141824Z 04008KT 13/M02 A3037 RMK A01 T01261015  RH  038%=      5-min Rain = 0
KCO1 141825Z 04006KT 13/M01 A3037 RMK A01 T01281012  RH  038%=      5-min Rain = 0
KCO1 141826Z 04008KT 13/M02 A3037 RMK A01 T01301015  RH  037%=      5-min Rain = 0
KCO1 141827Z 04009KT 13/M01 A3037 RMK A01 T01301013  RH  037%=      5-min Rain = 0
KCO1 141828Z 03007KT 13/M01 A3037 RMK A01 T01321012  RH  037%=      5-min Rain = 0
KCO1 141829Z 04006KT 13/M01 A3037 RMK A01 T01331012  RH  037%=      5-min Rain = 0
KCO1 141830Z 04007KT 13/M02 A3037 RMK A01 T01331016  RH  036%=      5-min Rain = 0
KCO1 141831Z 03007KT 13/M01 A3037 RMK A01 T01331014  RH  036%=      5-min Rain = 0
KCO1 141832Z 03009KT 13/M02 A3036 RMK A01 T01321018  RH  035%=      5-min Rain = 0
KCO1 141833Z 01010KT 13/M02 A3036 RMK A01 T01321017  RH  036%=      5-min Rain = 0
KCO1 141834Z 03010KT 13/M02 A3037 RMK A01 T01321015  RH  036%=      5-min Rain = 0
KCO1 141835Z 03009KT 13/M02 A3037 RMK A01 T01331016  RH  036%=      5-min Rain = 0
KCO1 141836Z 02010KT 13/M02 A3037 RMK A01 T01331017  RH  035%=      5-min Rain = 0
KCO1 141837Z 01010KT 13/M02 A3036 RMK A01 T01331021  RH  035%=      5-min Rain = 0
KCO1 141838Z 01012KT 13/M02 A3036 RMK A01 T01311022  RH  034%=      5-min Rain = 0
KCO1 141839Z 02011KT 13/M02 A3037 RMK A01 T01311020  RH  035%=      5-min Rain = 0
KCO1 141840Z 01010KT 13/M02 A3036 RMK A01 T01311023  RH  034%=      5-min Rain = 0
KCO1 141841Z 03008KT 13/M02 A3036 RMK A01 T01311024  RH  034%=      5-min Rain = 0
KCO1 141842Z 01009KT 13/M02 A3036 RMK A01 T01301024  RH  034%=      5-min Rain = 0
KCO1 141843Z 02009KT 13/M02 A3036 RMK A01 T01311024  RH  034%=      5-min Rain = 0
KCO1 141844Z 05009KT 13/M02 A3036 RMK A01 T01321021  RH  035%=      5-min Rain = 0
KCO1 141845Z 05008KT 13/M02 A3036 RMK A01 T01341016  RH  036%=      5-min Rain = 0
KCO1 141846Z 04007KT 14/M02 A3036 RMK A01 T01361016  RH  035%=      5-min Rain = 0
KCO1 141847Z 04010KT 14/M02 A3036 RMK A01 T01361018  RH  034%=      5-min Rain = 0
KCO1 141848Z 03012KT 14/M02 A3036 RMK A01 T01371022  RH  033%=      5-min Rain = 0
KCO1 141849Z 02009KT 13/M03 A3036 RMK A01 T01341029  RH  032%=      5-min Rain = 0
KCO1 141850Z 02008KT 13/M03 A3036 RMK A01 T01321028  RH  033%=      5-min Rain = 0
KCO1 141851Z 03009KT 13/M03 A3036 RMK A01 T01321027  RH  033%=      5-min Rain = 0
KCO1 141852Z 02011KT 13/M02 A3036 RMK A01 T01331022  RH  034%=      5-min Rain = 0
KCO1 141853Z 01012KT 14/M02 A3036 RMK A01 T01351024  RH  033%=      5-min Rain = 0
KCO1 141854Z 02008KT 14/M03 A3036 RMK A01 T01351030  RH  032%=      5-min Rain = 0
KCO1 141855Z 03007KT 13/M03 A3036 RMK A01 T01341030  RH  032%=      5-min Rain = 0
KCO1 141856Z 03012KT 13/M02 A3036 RMK A01 T01341024  RH  034%=      5-min Rain = 0
KCO1 141857Z 01010KT 14/M03 A3036 RMK A01 T01361026  RH  033%=      5-min Rain = 0
KCO1 141858Z 01012KT 14/M03 A3036 RMK A01 T01361026  RH  032%=      5-min Rain = 0
KCO1 141859Z 04012KT 14/M03 A3036 RMK A01 T01371025  RH  032%=      5-min Rain = 0
KCO1 141900Z 02010KT 14/M03 A3036 RMK A01 T01381027  RH  032%=      5-min Rain = 0
KCO1 141901Z 03010KT 14/M03 A3036 RMK A01 T01371028  RH  032%=      5-min Rain = 0
KCO1 141902Z 04010KT 14/M03 A3036 RMK A01 T01371026  RH  032%=      5-min Rain = 0
KCO1 141903Z 02009KT 14/M03 A3036 RMK A01 T01351026  RH  033%=      5-min Rain = 0
KCO1 141904Z 00009KT 13/M03 A3036 RMK A01 T01341027  RH  033%=      5-min Rain = 0
KCO1 141905Z 01009KT 14/M03 A3035 RMK A01 T01351027  RH  033%=      5-min Rain = 0
KCO1 141906Z 02013KT 14/M03 A3036 RMK A01 T01351025  RH  033%=      5-min Rain = 0
KCO1 141907Z 03013KT 14/M03 A3036 RMK A01 T01351025  RH  033%=      5-min Rain = 0
KCO1 141908Z 03012KT 14/M03 A3036 RMK A01 T01351027  RH  032%=      5-min Rain = 0
KCO1 141909Z 02011KT 14/M02 A3036 RMK A01 T01351024  RH  033%=      5-min Rain = 0
KCO1 141910Z 01009KT 14/M03 A3035 RMK A01 T01361027  RH  032%=      5-min Rain = 0
KCO1 141911Z 02012KT 14/M03 A3036 RMK A01 T01351026  RH  033%=      5-min Rain = 0
KCO1 141912Z 00012KT 14/M03 A3035 RMK A01 T01351026  RH  033%=      5-min Rain = 0
KCO1 141913Z 01010KT 14/M03 A3035 RMK A01 T01351027  RH  032%=      5-min Rain = 0
KCO1 141914Z 02009KT 14/M03 A3035 RMK A01 T01351028  RH  032%=      5-min Rain = 0
KCO1 141915Z 03011G17KT 14/M02 A3035 RMK A01 T01351022  RH  033%=      5-min Rain = 0
KCO1 141916Z 03014KT 14/M02 A3036 RMK A01 T01391019  RH  034%=      5-min Rain = 0
KCO1 141917Z 02013KT 14/M02 A3036 RMK A01 T01391021  RH  033%=      5-min Rain = 0
KCO1 141918Z 03011KT 14/M02 A3035 RMK A01 T01391022  RH  033%=      5-min Rain = 0
KCO1 141919Z 05010KT 14/M02 A3035 RMK A01 T01371023  RH  033%=      5-min Rain = 0
KCO1 141920Z 03008KT 14/M02 A3035 RMK A01 T01371022  RH  033%=      5-min Rain = 0
KCO1 141921Z 02009G14KT 14/M02 A3035 RMK A01 T01381022  RH  033%=      5-min Rain = 0
KCO1 141922Z 03012KT 14/M02 A3035 RMK A01 T01381022  RH  033%=      5-min Rain = 0
KCO1 141923Z 04014KT 14/M02 A3035 RMK A01 T01381020  RH  033%=      5-min Rain = 0
KCO1 141924Z 03012KT 14/M02 A3035 RMK A01 T01391022  RH  033%=      5-min Rain = 0
KCO1 141925Z 03013G19KT 14/M02 A3035 RMK A01 T01381021  RH  033%=      5-min Rain = 0
KCO1 141926Z 05012KT 14/M02 A3035 RMK A01 T01381022  RH  033%=      5-min Rain = 0
KCO1 141927Z 04012KT 14/M02 A3035 RMK A01 T01391022  RH  033%=      5-min Rain = 0
KCO1 141928Z 05012KT 14/M02 A3035 RMK A01 T01401024  RH  032%=      5-min Rain = 0
KCO1 141929Z 05011KT 14/M02 A3035 RMK A01 T01401023  RH  032%=      5-min Rain = 0
KCO1 141930Z 05010KT 14/M02 A3035 RMK A01 T01411023  RH  032%=      5-min Rain = 0
KCO1 141931Z 05010KT 14/M02 A3035 RMK A01 T01411022  RH  032%=      5-min Rain = 0
KCO1 141932Z 04010KT 14/M02 A3035 RMK A01 T01401024  RH  032%=      5-min Rain = 0
KCO1 141933Z 05009KT 14/M02 A3035 RMK A01 T01411018  RH  033%=      5-min Rain = 0
KCO1 141934Z 05009KT 14/M02 A3035 RMK A01 T01431021  RH  032%=      5-min Rain = 0
KCO1 141935Z 03007KT 14/M02 A3035 RMK A01 T01421021  RH  032%=      5-min Rain = 0
KCO1 141936Z 01007KT 14/M02 A3035 RMK A01 T01431019  RH  033%=      5-min Rain = 0
KCO1 141937Z 01012KT 14/M02 A3035 RMK A01 T01431021  RH  032%=      5-min Rain = 0
KCO1 141938Z 02012KT 14/M02 A3035 RMK A01 T01421021  RH  032%=      5-min Rain = 0
KCO1 141939Z 02011KT 14/M02 A3035 RMK A01 T01421021  RH  032%=      5-min Rain = 0
KCO1 141940Z 00009KT 14/M02 A3035 RMK A01 T01421023  RH  032%=      5-min Rain = 0
KCO1 141941Z 01007KT 14/M02 A3034 RMK A01 T01411022  RH  032%=      5-min Rain = 0
KCO1 141942Z 02012KT 14/M02 A3035 RMK A01 T01421020  RH  032%=      5-min Rain = 0
KCO1 141943Z 03012KT 14/M02 A3035 RMK A01 T01431021  RH  032%=      5-min Rain = 0
KCO1 141944Z 04012G17KT 14/M02 A3034 RMK A01 T01421021  RH  032%=      5-min Rain = 0
KCO1 141945Z 02012KT 14/M02 A3035 RMK A01 T01421020  RH  033%=      5-min Rain = 0
KCO1 141946Z 03010KT 14/M02 A3034 RMK A01 T01421024  RH  032%=      5-min Rain = 0
KCO1 141947Z 03009KT 14/M02 A3034 RMK A01 T01411022  RH  032%=      5-min Rain = 0
KCO1 141948Z 03009KT 14/M02 A3034 RMK A01 T01421021  RH  032%=      5-min Rain = 0
KCO1 141949Z 03011KT 14/M03 A3034 RMK A01 T01411025  RH  032%=      5-min Rain = 0
KCO1 141950Z 02012KT 14/M03 A3035 RMK A01 T01401025  RH  032%=      5-min Rain = 0
KCO1 141951Z 01007KT 14/M03 A3034 RMK A01 T01391027  RH  032%=      5-min Rain = 0
KCO1 141952Z 01005KT 14/M03 A3034 RMK A01 T01381028  RH  032%=      5-min Rain = 0
KCO1 141953Z 02009KT 14/M03 A3034 RMK A01 T01381026  RH  032%=      5-min Rain = 0
KCO1 141954Z 04008KT 14/M02 A3034 RMK A01 T01391024  RH  032%=      5-min Rain = 0
KCO1 141955Z 03007KT 14/M03 A3034 RMK A01 T01391026  RH  032%=      5-min Rain = 0
KCO1 141956Z 03008KT 14/M03 A3034 RMK A01 T01381027  RH  032%=      5-min Rain = 0
KCO1 141957Z 04011KT 14/M02 A3034 RMK A01 T01391021  RH  033%=      5-min Rain = 0
KCO1 141958Z 03011KT 14/M02 A3034 RMK A01 T01411021  RH  032%=      5-min Rain = 0
KCO1 141959Z 04008KT 14/M02 A3034 RMK A01 T01411023  RH  032%=      5-min Rain = 0
KCO1 142000Z 06009KT 14/M02 A3034 RMK A01 T01431017  RH  033%=      5-min Rain = 0
KCO1 142001Z 06010KT 15/M02 A3034 RMK A01 T01461016  RH  033%=      5-min Rain = 0
KCO1 142002Z 05008KT 15/M02 A3034 RMK A01 T01471020  RH  032%=      5-min Rain = 0
KCO1 142003Z 06008KT 15/M02 A3034 RMK A01 T01471017  RH  032%=      5-min Rain = 0
KCO1 142004Z 06007KT 15/M02 A3034 RMK A01 T01491016  RH  032%=      5-min Rain = 0
KCO1 142005Z 05010KT 15/M02 A3034 RMK A01 T01491018  RH  032%=      5-min Rain = 0
KCO1 142006Z 06007KT 15/M02 A3034 RMK A01 T01471021  RH  031%=      5-min Rain = 0
KCO1 142007Z 05011KT 15/M02 A3034 RMK A01 T01471017  RH  032%=      5-min Rain = 0
KCO1 142008Z 03011KT 15/M02 A3034 RMK A01 T01481018  RH  032%=      5-min Rain = 0
KCO1 142009Z 03009KT 15/M02 A3034 RMK A01 T01471019  RH  032%=      5-min Rain = 0
KCO1 142010Z 03013KT 15/M02 A3034 RMK A01 T01471015  RH  033%=      5-min Rain = 0
KCO1 142011Z 03012KT 15/M02 A3034 RMK A01 T01471020  RH  032%=      5-min Rain = 0
KCO1 142012Z 03009KT 14/M02 A3034 RMK A01 T01441020  RH  032%=      5-min Rain = 0
KCO1 142013Z 02011KT 15/M02 A3034 RMK A01 T01451017  RH  033%=      5-min Rain = 0
KCO1 142014Z 02012G17KT 15/M02 A3034 RMK A01 T01451022  RH  032%=      5-min Rain = 0
KCO1 142015Z 04011KT 15/M02 A3034 RMK A01 T01451018  RH  033%=      5-min Rain = 0
KCO1 142016Z 03009KT 15/M02 A3033 RMK A01 T01471016  RH  033%=      5-min Rain = 0
KCO1 142017Z 03009KT 15/M02 A3033 RMK A01 T01471017  RH  032%=      5-min Rain = 0
KCO1 142018Z 03008KT 15/M02 A3033 RMK A01 T01461020  RH  032%=      5-min Rain = 0
KCO1 142019Z 02008KT 15/M02 A3033 RMK A01 T01461019  RH  032%=      5-min Rain = 0
KCO1 142020Z 02009KT 15/M02 A3033 RMK A01 T01461017  RH  032%=      5-min Rain = 0
KCO1 142021Z 03010KT 15/M02 A3034 RMK A01 T01481015  RH  033%=      5-min Rain = 0
KCO1 142022Z 03012KT 15/M02 A3033 RMK A01 T01481016  RH  032%=      5-min Rain = 0
KCO1 142023Z 02012KT 15/M02 A3034 RMK A01 T01471015  RH  033%=      5-min Rain = 0
KCO1 142024Z 03015KT 15/M02 A3034 RMK A01 T01471016  RH  033%=      5-min Rain = 0
KCO1 142025Z 03015KT 15/M02 A3034 RMK A01 T01461017  RH  032%=      5-min Rain = 0
KCO1 142026Z 04013KT 14/M02 A3034 RMK A01 T01441019  RH  032%=      5-min Rain = 0
KCO1 142027Z 04015KT 14/M02 A3034 RMK A01 T01441018  RH  033%=      5-min Rain = 0
KCO1 142028Z 04013KT 14/M02 A3034 RMK A01 T01441018  RH  033%=      5-min Rain = 0
KCO1 142029Z 03012KT 14/M02 A3034 RMK A01 T01441018  RH  033%=      5-min Rain = 0
KCO1 142030Z 05012KT 14/M02 A3034 RMK A01 T01441018  RH  033%=      5-min Rain = 0
KCO1 142031Z 04011KT 14/M02 A3034 RMK A01 T01441019  RH  032%=      5-min Rain = 0
KCO1 142032Z 05012KT 15/M02 A3034 RMK A01 T01451016  RH  033%=      5-min Rain = 0
KCO1 142033Z 04011KT 15/M02 A3034 RMK A01 T01461015  RH  033%=      5-min Rain = 0
KCO1 142034Z 03011KT 15/M02 A3034 RMK A01 T01461017  RH  032%=      5-min Rain = 0
KCO1 142035Z 05008KT 14/M02 A3033 RMK A01 T01431018  RH  033%=      5-min Rain = 0
KCO1 142036Z 05007KT 14/M02 A3033 RMK A01 T01441015  RH  033%=      5-min Rain = 0
KCO1 142037Z 04007KT 15/M02 A3033 RMK A01 T01451016  RH  033%=      5-min Rain = 0
KCO1 142038Z 04010KT 15/M02 A3034 RMK A01 T01451016  RH  033%=      5-min Rain = 0
KCO1 142039Z 05012KT 14/M02 A3034 RMK A01 T01441015  RH  033%=      5-min Rain = 0
KCO1 142040Z 05010KT 15/M02 A3033 RMK A01 T01451015  RH  033%=      5-min Rain = 0
KCO1 142041Z 05011KT 15/M01 A3034 RMK A01 T01461012  RH  034%=      5-min Rain = 0
KCO1 142042Z 05010KT 15/M01 A3034 RMK A01 T01471014  RH  033%=      5-min Rain = 0
KCO1 142043Z 04010KT 15/M01 A3033 RMK A01 T01471013  RH  033%=      5-min Rain = 0
KCO1 142044Z 05010KT 15/M01 A3033 RMK A01 T01461014  RH  033%=      5-min Rain = 0
KCO1 142045Z 03011KT 15/M01 A3034 RMK A01 T01461013  RH  033%=      5-min Rain = 0
KCO1 142046Z 02010KT 15/M02 A3033 RMK A01 T01451016  RH  033%=      5-min Rain = 0
KCO1 142047Z 02011KT 14/M02 A3034 RMK A01 T01441016  RH  033%=      5-min Rain = 0
KCO1 142048Z 03013KT 14/M02 A3034 RMK A01 T01431016  RH  033%=      5-min Rain = 0
KCO1 142049Z 04013KT 14/M02 A3034 RMK A01 T01421015  RH  034%=      5-min Rain = 0
KCO1 142050Z 04013KT 14/M02 A3034 RMK A01 T01421016  RH  034%=      5-min Rain = 0
KCO1 142051Z 04010KT 14/M01 A3034 RMK A01 T01421014  RH  034%=      5-min Rain = 0
KCO1 142052Z 05011KT 14/M01 A3034 RMK A01 T01431011  RH  035%=      5-min Rain = 0
KCO1 142053Z 03009KT 15/M01 A3034 RMK A01 T01451010  RH  035%=      5-min Rain = 0
KCO1 142054Z 01009KT 15/M01 A3034 RMK A01 T01451010  RH  035%=      5-min Rain = 0
KCO1 142055Z 02010KT 15/M01 A3034 RMK A01 T01451008  RH  035%=      5-min Rain = 0
KCO1 142056Z 02008KT 14/M01 A3033 RMK A01 T01441010  RH  035%=      5-min Rain = 0
KCO1 142057Z 02008KT 14/M01 A3033 RMK A01 T01441006  RH  036%=      5-min Rain = 0
KCO1 142058Z 04011KT 15/M00 A3034 RMK A01 T01471002  RH  036%=      5-min Rain = 0
KCO1 142059Z 05011KT 15/M00 A3034 RMK A01 T01481004  RH  035%=      5-min Rain = 0
KCO1 142100Z 04009KT 15/M00 A3034 RMK A01 T01481003  RH  035%=      5-min Rain = 0
KCO1 142101Z 03009KT 15/M00 A3034 RMK A01 T01491004  RH  035%=      5-min Rain = 0
KCO1 142102Z 02008KT 15/M00 A3034 RMK A01 T01481004  RH  035%=      5-min Rain = 0
KCO1 142103Z 03010KT 15/M01 A3033 RMK A01 T01461008  RH  035%=      5-min Rain = 0
KCO1 142104Z 04009KT 15/M01 A3034 RMK A01 T01451006  RH  035%=      5-min Rain = 0
KCO1 142105Z 05008KT 14/M01 A3033 RMK A01 T01441007  RH  035%=      5-min Rain = 0
KCO1 142106Z 05010KT 14/M01 A3034 RMK A01 T01441006  RH  036%=      5-min Rain = 0
KCO1 142107Z 05011KT 15/M00 A3034 RMK A01 T01461004  RH  036%=      5-min Rain = 0
KCO1 142108Z 04010KT 15/M00 A3034 RMK A01 T01471004  RH  036%=      5-min Rain = 0
KCO1 142109Z 05009KT 15/M00 A3034 RMK A01 T01451004  RH  036%=      5-min Rain = 0
KCO1 142110Z 04011KT 15/M00 A3034 RMK A01 T01451004  RH  036%=      5-min Rain = 0
KCO1 142111Z 04013KT 15/M00 A3034 RMK A01 T01461004  RH  036%=      5-min Rain = 0
KCO1 142112Z 03011KT 15/M01 A3034 RMK A01 T01451005  RH  036%=      5-min Rain = 0
KCO1 142113Z 03011KT 14/M01 A3034 RMK A01 T01431008  RH  035%=      5-min Rain = 0
KCO1 142114Z 04009KT 14/M01 A3034 RMK A01 T01411008  RH  036%=      5-min Rain = 0
KCO1 142115Z 04007KT 14/M01 A3034 RMK A01 T01401008  RH  036%=      5-min Rain = 0
KCO1 142116Z 04008KT 14/M00 A3034 RMK A01 T01411002  RH  037%=      5-min Rain = 0
KCO1 142117Z 04009KT 14/M00 A3034 RMK A01 T01441004  RH  036%=      5-min Rain = 0
KCO1 142118Z 04008KT 14/M01 A3034 RMK A01 T01431006  RH  036%=      5-min Rain = 0
KCO1 142119Z 03008KT 14/M00 A3034 RMK A01 T01421004  RH  037%=      5-min Rain = 0
KCO1 142120Z 05011KT 14/M00 A3034 RMK A01 T01441003  RH  036%=      5-min Rain = 0
KCO1 142121Z 04009KT 15/M00 A3034 RMK A01 T01451004  RH  036%=      5-min Rain = 0
KCO1 142122Z 05010G15KT 15/M00 A3034 RMK A01 T01451001  RH  037%=      5-min Rain = 0
KCO1 142123Z 05012KT 15/M00 A3034 RMK A01 T01471003  RH  036%=      5-min Rain = 0
KCO1 142124Z 04008KT 15/M01 A3034 RMK A01 T01461005  RH  036%=      5-min Rain = 0
KCO1 142125Z 04008KT 15/M01 A3034 RMK A01 T01451006  RH  036%=      5-min Rain = 0
KCO1 142126Z 03009KT 14/M00 A3034 RMK A01 T01441004  RH  036%=      5-min Rain = 0
KCO1 142127Z 04013KT 14/M00 A3034 RMK A01 T01441004  RH  036%=      5-min Rain = 0
KCO1 142128Z 03011KT 14/M01 A3034 RMK A01 T01431005  RH  036%=      5-min Rain = 0
KCO1 142129Z 04012KT 14/M01 A3034 RMK A01 T01421005  RH  036%=      5-min Rain = 0
KCO1 142130Z 06012KT 14/M01 A3034 RMK A01 T01421005  RH  036%=      5-min Rain = 0
KCO1 142131Z 05010KT 14/M01 A3034 RMK A01 T01421005  RH  036%=      5-min Rain = 0
KCO1 142132Z 05009KT 14/M00 A3034 RMK A01 T01441004  RH  036%=      5-min Rain = 0
KCO1 142133Z 05007KT 14/M01 A3034 RMK A01 T01441005  RH  036%=      5-min Rain = 0
KCO1 142134Z 06007KT 14/M01 A3034 RMK A01 T01441008  RH  035%=      5-min Rain = 0
KCO1 142135Z 05007KT 14/M01 A3034 RMK A01 T01431006  RH  036%=      5-min Rain = 0
KCO1 142136Z 04008KT 14/M01 A3034 RMK A01 T01441006  RH  036%=      5-min Rain = 0
KCO1 142137Z 03007KT 14/M01 A3034 RMK A01 T01421008  RH  036%=      5-min Rain = 0
KCO1 142138Z 02008KT 14/M01 A3034 RMK A01 T01421005  RH  036%=      5-min Rain = 0
KCO1 142139Z 01009KT 14/M01 A3034 RMK A01 T01411006  RH  036%=      5-min Rain = 0
KCO1 142140Z 01008KT 14/M01 A3034 RMK A01 T01421007  RH  036%=      5-min Rain = 0
KCO1 142141Z 03010KT 14/M01 A3034 RMK A01 T01421005  RH  036%=      5-min Rain = 0
KCO1 142142Z 03012KT 14/M01 A3034 RMK A01 T01421007  RH  036%=      5-min Rain = 0
KCO1 142143Z 03010KT 14/M01 A3034 RMK A01 T01411007  RH  036%=      5-min Rain = 0
KCO1 142144Z 03013KT 14/M01 A3034 RMK A01 T01401005  RH  037%=      5-min Rain = 0
KCO1 142145Z 02010KT 14/M00 A3034 RMK A01 T01411004  RH  037%=      5-min Rain = 0
KCO1 142146Z 02011KT 14/M01 A3034 RMK A01 T01421005  RH  036%=      5-min Rain = 0
KCO1 142147Z 02010KT 14/M01 A3034 RMK A01 T01411008  RH  036%=      5-min Rain = 0
KCO1 142148Z 02010KT 14/M01 A3034 RMK A01 T01401005  RH  037%=      5-min Rain = 0
KCO1 142149Z 04010KT 14/M00 A3034 RMK A01 T01421003  RH  037%=      5-min Rain = 0
KCO1 142150Z 04009KT 14/M01 A3034 RMK A01 T01421005  RH  036%=      5-min Rain = 0
KCO1 142151Z 05007KT 14/M01 A3034 RMK A01 T01411008  RH  036%=      5-min Rain = 0
KCO1 142152Z 06009KT 14/M01 A3034 RMK A01 T01391007  RH  036%=      5-min Rain = 0
KCO1 142153Z 04009KT 14/M01 A3034 RMK A01 T01401007  RH  036%=      5-min Rain = 0
KCO1 142154Z 03008KT 14/M01 A3034 RMK A01 T01411006  RH  036%=      5-min Rain = 0
KCO1 142155Z 03007KT 14/M01 A3034 RMK A01 T01411007  RH  036%=      5-min Rain = 0
KCO1 142156Z 05009KT 14/M00 A3034 RMK A01 T01401004  RH  037%=      5-min Rain = 0
KCO1 142157Z 05011KT 14/M00 A3034 RMK A01 T01431002  RH  037%=      5-min Rain = 0
KCO1 142158Z 04010KT 14/M00 A3034 RMK A01 T01441004  RH  036%=      5-min Rain = 0
KCO1 142159Z 04009KT 14/M00 A3034 RMK A01 T01431004  RH  036%=      5-min Rain = 0
KCO1 142200Z 05010KT 14/M01 A3034 RMK A01 T01421005  RH  036%=      5-min Rain = 0
KCO1 142201Z 05008KT 14/M01 A3034 RMK A01 T01421007  RH  036%=      5-min Rain = 0
KCO1 142202Z 04008KT 14/M01 A3034 RMK A01 T01411007  RH  036%=      5-min Rain = 0
KCO1 142203Z 05010KT 14/M00 A3034 RMK A01 T01411004  RH  037%=      5-min Rain = 0
KCO1 142204Z 06008KT 14/M01 A3034 RMK A01 T01421006  RH  036%=      5-min Rain = 0
KCO1 142205Z 06008KT 14/M01 A3034 RMK A01 T01421006  RH  036%=      5-min Rain = 0
KCO1 142206Z 05007KT 14/M00 A3034 RMK A01 T01421004  RH  037%=      5-min Rain = 0
KCO1 142207Z 05007KT 14/M00 A3034 RMK A01 T01431002  RH  037%=      5-min Rain = 0
KCO1 142208Z 04007KT 14/M00 A3034 RMK A01 T01441002  RH  037%=      5-min Rain = 0
KCO1 142209Z 04007KT 14/M00 A3034 RMK A01 T01441002  RH  037%=      5-min Rain = 0
KCO1 142210Z 05007KT 14/M00 A3034 RMK A01 T01441001  RH  037%=      5-min Rain = 0
KCO1 142211Z 05006KT 14/M01 A3034 RMK A01 T01441005  RH  036%=      5-min Rain = 0
KCO1 142212Z 05006KT 14/M01 A3034 RMK A01 T01431005  RH  036%=      5-min Rain = 0
KCO1 142213Z 06007KT 14/M00 A3034 RMK A01 T01431003  RH  037%=      5-min Rain = 0
KCO1 142214Z 06007KT 14/M01 A3034 RMK A01 T01431006  RH  036%=      5-min Rain = 0
KCO1 142215Z 04008KT 14/M01 A3034 RMK A01 T01431005  RH  036%=      5-min Rain = 0
KCO1 142216Z 04007KT 14/M01 A3034 RMK A01 T01421007  RH  036%=      5-min Rain = 0
KCO1 142217Z 04008KT 14/M01 A3035 RMK A01 T01411008  RH  036%=      5-min Rain = 0
KCO1 142218Z 04008KT 14/M01 A3034 RMK A01 T01401006  RH  037%=      5-min Rain = 0
KCO1 142219Z 04009KT 14/M01 A3034 RMK A01 T01401006  RH  037%=      5-min Rain = 0
KCO1 142220Z 03008KT 14/M00 A3034 RMK A01 T01401004  RH  037%=      5-min Rain = 0
KCO1 142221Z 04009KT 14/M00 A3035 RMK A01 T01411004  RH  037%=      5-min Rain = 0
KCO1 142222Z 03009KT 14/M01 A3034 RMK A01 T01401005  RH  037%=      5-min Rain = 0
KCO1 142223Z 03010KT 14/M01 A3034 RMK A01 T01401005  RH  037%=      5-min Rain = 0
KCO1 142224Z 03008KT 14/M01 A3034 RMK A01 T01401005  RH  037%=      5-min Rain = 0
KCO1 142225Z 03009KT 14/M01 A3034 RMK A01 T01401005  RH  037%=      5-min Rain = 0
KCO1 142226Z 03008KT 14/M01 A3035 RMK A01 T01401006  RH  037%=      5-min Rain = 0
KCO1 142227Z 02011KT 14/M01 A3034 RMK A01 T01391006  RH  037%=      5-min Rain = 0
KCO1 142228Z 03009KT 14/M01 A3034 RMK A01 T01391007  RH  037%=      5-min Rain = 0
KCO1 142229Z 03007KT 14/M01 A3034 RMK A01 T01391005  RH  037%=      5-min Rain = 0
KCO1 142230Z 03008KT 14/M01 A3035 RMK A01 T01391005  RH  037%=      5-min Rain = 0
KCO1 142231Z 03007KT 14/M01 A3034 RMK A01 T01391006  RH  037%=      5-min Rain = 0
KCO1 142232Z 03007KT 14/M01 A3034 RMK A01 T01401006  RH  037%=      5-min Rain = 0
KCO1 142233Z 04007KT 14/M01 A3035 RMK A01 T01391007  RH  037%=      5-min Rain = 0
KCO1 142234Z 05007KT 14/M01 A3035 RMK A01 T01391007  RH  037%=      5-min Rain = 0
KCO1 142235Z 04005KT 14/M01 A3035 RMK A01 T01391006  RH  037%=      5-min Rain = 0
KCO1 142236Z 03005KT 14/M01 A3035 RMK A01 T01391006  RH  037%=      5-min Rain = 0
KCO1 142237Z 05007KT 14/M00 A3035 RMK A01 T01401004  RH  037%=      5-min Rain = 0
KCO1 142238Z 05007KT 14/M00 A3035 RMK A01 T01401004  RH  037%=      5-min Rain = 0
KCO1 142239Z 05008KT 14/M01 A3035 RMK A01 T01411005  RH  037%=      5-min Rain = 0
KCO1 142240Z 03009KT 14/M01 A3035 RMK A01 T01411005  RH  037%=      5-min Rain = 0
KCO1 142241Z 02009KT 14/M01 A3035 RMK A01 T01401006  RH  037%=      5-min Rain = 0
KCO1 142242Z 03008KT 14/M01 A3035 RMK A01 T01391007  RH  037%=      5-min Rain = 0
KCO1 142243Z 02010KT 14/M01 A3035 RMK A01 T01391007  RH  037%=      5-min Rain = 0
KCO1 142244Z 02010KT 14/M01 A3035 RMK A01 T01391007  RH  037%=      5-min Rain = 0
KCO1 142245Z 02008KT 14/M01 A3035 RMK A01 T01381010  RH  036%=      5-min Rain = 0
KCO1 142246Z 03005KT 14/M01 A3035 RMK A01 T01371008  RH  037%=      5-min Rain = 0
KCO1 142247Z 05009KT 14/M01 A3035 RMK A01 T01381006  RH  037%=      5-min Rain = 0
KCO1 142248Z 04007KT 14/M01 A3035 RMK A01 T01381006  RH  037%=      5-min Rain = 0
KCO1 142249Z 04009KT 14/M00 A3035 RMK A01 T01391004  RH  038%=      5-min Rain = 0
KCO1 142250Z 03008KT 14/M01 A3035 RMK A01 T01391005  RH  037%=      5-min Rain = 0
KCO1 142251Z 02008KT 14/M01 A3035 RMK A01 T01381008  RH  037%=      5-min Rain = 0
KCO1 142252Z 02008KT 14/M01 A3035 RMK A01 T01371009  RH  037%=      5-min Rain = 0
KCO1 142253Z 04008KT 14/M01 A3035 RMK A01 T01371009  RH  037%=      5-min Rain = 0
KCO1 142254Z 03007KT 14/M01 A3035 RMK A01 T01361009  RH  037%=      5-min Rain = 0
KCO1 142255Z 03008KT 14/M01 A3035 RMK A01 T01361008  RH  037%=      5-min Rain = 0
KCO1 142256Z 05008KT 14/M01 A3035 RMK A01 T01361008  RH  037%=      5-min Rain = 0
KCO1 142257Z 03006KT 14/M01 A3035 RMK A01 T01361007  RH  037%=      5-min Rain = 0
KCO1 142258Z 03006KT 14/M01 A3035 RMK A01 T01361006  RH  038%=      5-min Rain = 0
KCO1 142259Z 03007KT 14/M01 A3035 RMK A01 T01361007  RH  037%=      5-min Rain = 0
KCO1 142300Z 02008KT 14/M01 A3035 RMK A01 T01361008  RH  037%=      5-min Rain = 0
KCO1 142301Z 02007KT 14/M01 A3035 RMK A01 T01371009  RH  037%=      5-min Rain = 0
KCO1 142302Z 04006KT 14/M01 A3035 RMK A01 T01361006  RH  038%=      5-min Rain = 0
KCO1 142303Z 04007KT 14/M01 A3035 RMK A01 T01361008  RH  037%=      5-min Rain = 0
KCO1 142304Z 05008KT 14/M01 A3035 RMK A01 T01361010  RH  037%=      5-min Rain = 0
KCO1 142305Z 05006KT 14/M01 A3035 RMK A01 T01351010  RH  037%=      5-min Rain = 0
KCO1 142306Z 04007KT 14/M01 A3036 RMK A01 T01351009  RH  037%=      5-min Rain = 0
KCO1 142307Z 04007KT 13/M01 A3036 RMK A01 T01341011  RH  037%=      5-min Rain = 0
KCO1 142308Z 04006KT 13/M01 A3036 RMK A01 T01341010  RH  037%=      5-min Rain = 0
KCO1 142309Z 05006KT 13/M01 A3036 RMK A01 T01341009  RH  037%=      5-min Rain = 0
KCO1 142310Z 04006KT 13/M01 A3036 RMK A01 T01341009  RH  037%=      5-min Rain = 0
KCO1 142311Z 04006KT 13/M01 A3036 RMK A01 T01341009  RH  037%=      5-min Rain = 0
KCO1 142312Z 02006KT 13/M01 A3036 RMK A01 T01331009  RH  037%=      5-min Rain = 0
KCO1 142313Z 02005KT 13/M01 A3036 RMK A01 T01331009  RH  038%=      5-min Rain = 0
KCO1 142314Z 02005KT 13/M01 A3036 RMK A01 T01331007  RH  038%=      5-min Rain = 0
KCO1 142315Z 03005KT 13/M01 A3036 RMK A01 T01331007  RH  038%=      5-min Rain = 0
KCO1 142316Z 04006KT 13/M01 A3036 RMK A01 T01321007  RH  038%=      5-min Rain = 0
KCO1 142317Z 05007KT 13/M01 A3036 RMK A01 T01321009  RH  038%=      5-min Rain = 0
KCO1 142318Z 06007KT 13/M01 A3036 RMK A01 T01311009  RH  038%=      5-min Rain = 0
KCO1 142319Z 06007KT 13/M01 A3036 RMK A01 T01311010  RH  038%=      5-min Rain = 0
KCO1 142320Z 06006KT 13/M01 A3036 RMK A01 T01311009  RH  038%=      5-min Rain = 0
KCO1 142321Z 07006KT 13/M01 A3036 RMK A01 T01301009  RH  038%=      5-min Rain = 0
KCO1 142322Z 05007KT 13/M01 A3036 RMK A01 T01301008  RH  039%=      5-min Rain = 0
KCO1 142323Z 04007KT 13/M01 A3036 RMK A01 T01291009  RH  039%=      5-min Rain = 0
KCO1 142324Z 05006KT 13/M01 A3036 RMK A01 T01291009  RH  039%=      5-min Rain = 0
KCO1 142325Z 04007KT 13/M01 A3036 RMK A01 T01281009  RH  038%=      5-min Rain = 0
KCO1 142326Z 04006KT 13/M01 A3036 RMK A01 T01281009  RH  039%=      5-min Rain = 0
KCO1 142327Z 04008KT 13/M01 A3036 RMK A01 T01281008  RH  039%=      5-min Rain = 0
KCO1 142328Z 05007KT 13/M01 A3037 RMK A01 T01271009  RH  039%=      5-min Rain = 0
KCO1 142329Z 05006KT 13/M01 A3037 RMK A01 T01271009  RH  039%=      5-min Rain = 0
KCO1 142330Z 05006KT 13/M01 A3037 RMK A01 T01271009  RH  039%=      5-min Rain = 0
KCO1 142331Z 05007KT 13/M01 A3037 RMK A01 T01261008  RH  039%=      5-min Rain = 0
KCO1 142332Z 05006KT 13/M01 A3037 RMK A01 T01261008  RH  040%=      5-min Rain = 0
KCO1 142333Z 05006KT 13/M01 A3037 RMK A01 T01251007  RH  040%=      5-min Rain = 0
KCO1 142334Z 05006KT 13/M01 A3037 RMK A01 T01251007  RH  040%=      5-min Rain = 0
KCO1 142335Z 05006KT 12/M01 A3037 RMK A01 T01241006  RH  041%=      5-min Rain = 0
KCO1 142336Z 05006KT 12/M01 A3037 RMK A01 T01241006  RH  041%=      5-min Rain = 0
KCO1 142337Z 05006KT 12/M01 A3037 RMK A01 T01231006  RH  041%=      5-min Rain = 0
KCO1 142338Z 05006KT 12/M01 A3037 RMK A01 T01231005  RH  041%=      5-min Rain = 0
KCO1 142339Z 05007KT 12/M00 A3037 RMK A01 T01221004  RH  042%=      5-min Rain = 0
KCO1 142340Z 05007KT 12/M01 A3037 RMK A01 T01211005  RH  042%=      5-min Rain = 0
KCO1 142341Z 05007KT 12/M01 A3037 RMK A01 T01211005  RH  042%=      5-min Rain = 0
KCO1 142342Z 05006KT 12/M01 A3037 RMK A01 T01201005  RH  042%=      5-min Rain = 0
KCO1 142343Z 05006KT 12/M00 A3037 RMK A01 T01191004  RH  043%=      5-min Rain = 0
KCO1 142344Z 05006KT 12/M00 A3037 RMK A01 T01191003  RH  043%=      5-min Rain = 0
KCO1 142345Z 05006KT 12/M00 A3037 RMK A01 T01171003  RH  043%=      5-min Rain = 0
KCO1 142346Z 05005KT 12/M00 A3037 RMK A01 T01171002  RH  044%=      5-min Rain = 0
KCO1 142347Z 05006KT 12/M00 A3037 RMK A01 T01161002  RH  044%=      5-min Rain = 0
KCO1 142348Z 06005KT 12/M00 A3037 RMK A01 T01151002  RH  045%=      5-min Rain = 0
KCO1 142349Z 05006KT 11/M00 A3037 RMK A01 T01141002  RH  045%=      5-min Rain = 0
KCO1 142350Z 06006KT 11/M00 A3037 RMK A01 T01141002  RH  045%=      5-min Rain = 0
KCO1 142351Z 06006KT 11/M00 A3037 RMK A01 T01131001  RH  045%=      5-min Rain = 0
KCO1 142352Z 06006KT 11/M00 A3038 RMK A01 T01121001  RH  046%=      5-min Rain = 0
KCO1 142353Z 05005KT 11/M00 A3038 RMK A01 T01111001  RH  046%=      5-min Rain = 0
KCO1 142354Z 06006KT 11/M00 A3038 RMK A01 T01111001  RH  046%=      5-min Rain = 0
KCO1 142355Z 06005KT 11/M00 A3038 RMK A01 T01101001  RH  046%=      5-min Rain = 0
KCO1 142356Z 06006KT 11/M00 A3038 RMK A01 T01101001  RH  046%=      5-min Rain = 0
KCO1 142357Z 06006KT 11/M00 A3038 RMK A01 T01091001  RH  046%=      5-min Rain = 0
KCO1 142358Z 06005KT 11/M00 A3038 RMK A01 T01091001  RH  047%=      5-min Rain = 0
KCO1 142359Z 06006KT 11/M00 A3038 RMK A01 T01081001  RH  047%=      5-min Rain = 0
KCO1 150000Z 06006KT 11/00 A3038 RMK A01 T010800-0  RH  047%=      5-min Rain = 0
KCO1 150001Z 06006KT 11/M00 A3038 RMK A01 T01081001  RH  047%=      5-min Rain = 0
KCO1 150002Z 06006KT 11/00 A3038 RMK A01 T010800-0  RH  047%=      5-min Rain = 0
KCO1 150003Z 06006KT 11/00 A3038 RMK A01 T010800-0  RH  047%=      5-min Rain = 0
KCO1 150004Z 06006KT 11/00 A3038 RMK A01 T010700-0  RH  047%=      5-min Rain = 0
KCO1 150005Z 06006KT 11/00 A3038 RMK A01 T010700-0  RH  047%=      5-min Rain = 0
KCO1 150006Z 06006KT 11/00 A3038 RMK A01 T010600-0  RH  048%=      5-min Rain = 0
KCO1 150007Z 06006KT 11/00 A3038 RMK A01 T010600-0  RH  048%=      5-min Rain = 0
KCO1 150008Z 06006KT 11/00 A3038 RMK A01 T010600-0  RH  048%=      5-min Rain = 0
KCO1 150009Z 06007KT 11/00 A3038 RMK A01 T010500-0  RH  048%=      5-min Rain = 0
KCO1 150010Z 06006KT 11/M00 A3038 RMK A01 T01051001  RH  048%=      5-min Rain = 0
KCO1 150011Z 06006KT 11/00 A3038 RMK A01 T01050000  RH  048%=      5-min Rain = 0
KCO1 150012Z 06006KT 10/00 A3038 RMK A01 T01040000  RH  048%=      5-min Rain = 0
KCO1 150013Z 06006KT 10/00 A3038 RMK A01 T01040000  RH  049%=      5-min Rain = 0
KCO1 150014Z 06006KT 10/00 A3038 RMK A01 T01030000  RH  049%=      5-min Rain = 0
KCO1 150015Z 06006KT 10/00 A3038 RMK A01 T01020001  RH  049%=      5-min Rain = 0
KCO1 150016Z 06005KT 10/00 A3038 RMK A01 T01020001  RH  050%=      5-min Rain = 0
KCO1 150017Z 06006KT 10/00 A3038 RMK A01 T01010001  RH  050%=      5-min Rain = 0
KCO1 150018Z 06006KT 10/00 A3038 RMK A01 T01010001  RH  050%=      5-min Rain = 0
KCO1 150019Z 06006KT 10/00 A3038 RMK A01 T01000001  RH  050%=      5-min Rain = 0
KCO1 150020Z 06005KT 10/00 A3039 RMK A01 T01000001  RH  050%=      5-min Rain = 0
KCO1 150021Z 07005KT 10/00 A3039 RMK A01 T00990002  RH  051%=      5-min Rain = 0
KCO1 150022Z 07005KT 10/00 A3039 RMK A01 T00990002  RH  051%=      5-min Rain = 0
KCO1 150023Z 07005KT 10/00 A3039 RMK A01 T00980002  RH  051%=      5-min Rain = 0
KCO1 150024Z 06005KT 10/00 A3039 RMK A01 T00980002  RH  051%=      5-min Rain = 0
KCO1 150025Z 07005KT 10/00 A3039 RMK A01 T00970002  RH  052%=      5-min Rain = 0
KCO1 150026Z 06006KT 10/00 A3039 RMK A01 T00970002  RH  052%=      5-min Rain = 0
KCO1 150027Z 06006KT 10/00 A3039 RMK A01 T00970002  RH  052%=      5-min Rain = 0
KCO1 150028Z 06006KT 10/00 A3039 RMK A01 T00970002  RH  052%=      5-min Rain = 0
KCO1 150029Z 06007KT 10/00 A3039 RMK A01 T00970002  RH  052%=      5-min Rain = 0
KCO1 150030Z 06007KT 10/00 A3039 RMK A01 T00970002  RH  052%=      5-min Rain = 0
KCO1 150031Z 06007KT 10/00 A3039 RMK A01 T00970002  RH  052%=      5-min Rain = 0
KCO1 150032Z 06007KT 10/00 A3039 RMK A01 T00970002  RH  052%=      5-min Rain = 0
KCO1 150033Z 06006KT 10/00 A3039 RMK A01 T00960002  RH  052%=      5-min Rain = 0
KCO1 150034Z 06006KT 10/00 A3039 RMK A01 T00960002  RH  052%=      5-min Rain = 0
KCO1 150035Z 06007KT 10/00 A3039 RMK A01 T00950002  RH  052%=      5-min Rain = 0
KCO1 150036Z 06006KT 10/00 A3039 RMK A01 T00950002  RH  052%=      5-min Rain = 0
KCO1 150037Z 06006KT 09/00 A3039 RMK A01 T00940002  RH  052%=      5-min Rain = 0
KCO1 150038Z 06006KT 09/00 A3039 RMK A01 T00940002  RH  053%=      5-min Rain = 0
KCO1 150039Z 06006KT 09/00 A3039 RMK A01 T00940002  RH  053%=      5-min Rain = 0
KCO1 150040Z 06006KT 09/00 A3039 RMK A01 T00930002  RH  053%=      5-min Rain = 0
KCO1 150041Z 06006KT 09/00 A3039 RMK A01 T00920002  RH  053%=      5-min Rain = 0
KCO1 150042Z 06006KT 09/00 A3039 RMK A01 T00920002  RH  053%=      5-min Rain = 0
KCO1 150043Z 06006KT 09/00 A3039 RMK A01 T00910002  RH  054%=      5-min Rain = 0
KCO1 150044Z 06006KT 09/00 A3039 RMK A01 T00910002  RH  054%=      5-min Rain = 0
KCO1 150045Z 06006KT 09/00 A3039 RMK A01 T00900002  RH  054%=      5-min Rain = 0
KCO1 150046Z 07005KT 09/00 A3039 RMK A01 T00900003  RH  054%=      5-min Rain = 0
KCO1 150047Z 06005KT 09/00 A3039 RMK A01 T00890003  RH  055%=      5-min Rain = 0
KCO1 150048Z 06005KT 09/00 A3039 RMK A01 T00890003  RH  055%=      5-min Rain = 0
KCO1 150049Z 06005KT 09/00 A3039 RMK A01 T00880003  RH  055%=      5-min Rain = 0
KCO1 150050Z 06005KT 09/00 A3039 RMK A01 T00870003  RH  055%=      5-min Rain = 0
KCO1 150051Z 06005KT 09/00 A3039 RMK A01 T00860003  RH  056%=      5-min Rain = 0
KCO1 150052Z 06005KT 09/00 A304 RMK A01 T00860003  RH  056%=      5-min Rain = 0
KCO1 150053Z 06005KT 09/00 A304 RMK A01 T00850003  RH  056%=      5-min Rain = 0
KCO1 150054Z 07005KT 09/00 A304 RMK A01 T00850004  RH  057%=      5-min Rain = 0
KCO1 150055Z 06005KT 09/00 A304 RMK A01 T00850004  RH  057%=      5-min Rain = 0
KCO1 150056Z 06006KT 08/00 A304 RMK A01 T00840004  RH  057%=      5-min Rain = 0
KCO1 150057Z 06006KT 08/00 A304 RMK A01 T00840004  RH  057%=      5-min Rain = 0
KCO1 150058Z 06006KT 09/00 A304 RMK A01 T00850004  RH  057%=      5-min Rain = 0
KCO1 150059Z 06006KT 09/00 A304 RMK A01 T00850003  RH  057%=      5-min Rain = 0
KCO1 150100Z 07005KT 09/00 A304 RMK A01 T00850004  RH  057%=      5-min Rain = 0
KCO1 150101Z 07005KT 09/00 A304 RMK A01 T00850004  RH  057%=      5-min Rain = 0
KCO1 150102Z 06005KT 09/00 A304 RMK A01 T00850004  RH  057%=      5-min Rain = 0
KCO1 150103Z 07004KT 09/00 A304 RMK A01 T00850003  RH  056%=      5-min Rain = 0
KCO1 150104Z 07004KT 09/00 A304 RMK A01 T00850003  RH  056%=      5-min Rain = 0
KCO1 150105Z 06005KT 09/00 A304 RMK A01 T00850003  RH  056%=      5-min Rain = 0
KCO1 150106Z 06004KT 09/00 A304 RMK A01 T00850003  RH  056%=      5-min Rain = 0
KCO1 150107Z 06004KT 09/00 A304 RMK A01 T00850003  RH  057%=      5-min Rain = 0
KCO1 150108Z 06005KT 08/00 A304 RMK A01 T00840003  RH  057%=      5-min Rain = 0
KCO1 150109Z 06004KT 08/00 A304 RMK A01 T00830003  RH  057%=      5-min Rain = 0
KCO1 150110Z 06004KT 08/00 A304 RMK A01 T00830003  RH  057%=      5-min Rain = 0
KCO1 150111Z 06004KT 08/00 A304 RMK A01 T00820004  RH  058%=      5-min Rain = 0
KCO1 150112Z 06004KT 08/00 A304 RMK A01 T00820004  RH  058%=      5-min Rain = 0
KCO1 150113Z 06004KT 08/00 A304 RMK A01 T00810004  RH  058%=      5-min Rain = 0
KCO1 150114Z 06004KT 08/01 A3041 RMK A01 T00810005  RH  059%=      5-min Rain = 0
KCO1 150115Z 05004KT 08/01 A3041 RMK A01 T00800006  RH  059%=      5-min Rain = 0
KCO1 150116Z 05004KT 08/01 A3041 RMK A01 T00790006  RH  060%=      5-min Rain = 0
KCO1 150117Z 05003KT 08/01 A3041 RMK A01 T00790006  RH  060%=      5-min Rain = 0
KCO1 150118Z 05003KT 08/01 A3041 RMK A01 T00780007  RH  061%=      5-min Rain = 0
KCO1 150119Z 05003KT 08/01 A3041 RMK A01 T00780006  RH  060%=      5-min Rain = 0
KCO1 150120Z 05003KT 08/01 A3041 RMK A01 T00780006  RH  060%=      5-min Rain = 0
KCO1 150121Z 05002KT 08/01 A3041 RMK A01 T00780005  RH  060%=      5-min Rain = 0
KCO1 150122Z 05003KT 08/01 A3041 RMK A01 T00780006  RH  060%=      5-min Rain = 0
KCO1 150123Z 05003KT 08/01 A3041 RMK A01 T00780005  RH  060%=      5-min Rain = 0
KCO1 150124Z 05003KT 08/00 A3041 RMK A01 T00780004  RH  060%=      5-min Rain = 0
KCO1 150125Z 05003KT 08/00 A3041 RMK A01 T00790004  RH  059%=      5-min Rain = 0
KCO1 150126Z 05003KT 08/00 A3041 RMK A01 T00790004  RH  059%=      5-min Rain = 0
KCO1 150127Z 05003KT 08/01 A3041 RMK A01 T00780005  RH  060%=      5-min Rain = 0
KCO1 150128Z 05003KT 08/01 A3041 RMK A01 T00770005  RH  061%=      5-min Rain = 0
KCO1 150129Z 05003KT 08/01 A3041 RMK A01 T00760005  RH  061%=      5-min Rain = 0
KCO1 150130Z 05003KT 08/01 A3041 RMK A01 T00750005  RH  061%=      5-min Rain = 0
KCO1 150131Z 05003KT 07/01 A3041 RMK A01 T00740005  RH  061%=      5-min Rain = 0
KCO1 150132Z 05003KT 07/00 A3041 RMK A01 T00740004  RH  061%=      5-min Rain = 0
KCO1 150133Z 05003KT 07/00 A3041 RMK A01 T00740004  RH  061%=      5-min Rain = 0
KCO1 150134Z 05004KT 07/01 A3041 RMK A01 T00740005  RH  062%=      5-min Rain = 0
KCO1 150135Z 05004KT 07/01 A3041 RMK A01 T00730005  RH  062%=      5-min Rain = 0
KCO1 150136Z 05004KT 07/01 A3041 RMK A01 T00730005  RH  062%=      5-min Rain = 0
KCO1 150137Z 05004KT 07/01 A3041 RMK A01 T00720005  RH  062%=      5-min Rain = 0
KCO1 150138Z 05004KT 07/01 A3041 RMK A01 T00720005  RH  062%=      5-min Rain = 0
KCO1 150139Z 05004KT 07/01 A3041 RMK A01 T00720005  RH  063%=      5-min Rain = 0
KCO1 150140Z 05004KT 07/00 A3041 RMK A01 T00710004  RH  062%=      5-min Rain = 0
KCO1 150141Z 06004KT 07/00 A3041 RMK A01 T00710003  RH  062%=      5-min Rain = 0
KCO1 150142Z 06004KT 07/00 A3041 RMK A01 T00710003  RH  062%=      5-min Rain = 0
KCO1 150143Z 06004KT 07/00 A3041 RMK A01 T00710003  RH  062%=      5-min Rain = 0
KCO1 150144Z 06004KT 07/00 A3042 RMK A01 T00710003  RH  062%=      5-min Rain = 0
KCO1 150145Z 06004KT 07/00 A3042 RMK A01 T00710003  RH  062%=      5-min Rain = 0
KCO1 150146Z 06004KT 07/00 A3042 RMK A01 T00720004  RH  062%=      5-min Rain = 0
KCO1 150147Z 06004KT 07/00 A3042 RMK A01 T00720004  RH  062%=      5-min Rain = 0
KCO1 150148Z 06004KT 07/00 A3042 RMK A01 T00720004  RH  062%=      5-min Rain = 0
KCO1 150149Z 06005KT 07/00 A3042 RMK A01 T00720003  RH  062%=      5-min Rain = 0
KCO1 150150Z 05005KT 07/00 A3042 RMK A01 T00720003  RH  061%=      5-min Rain = 0
KCO1 150151Z 06005KT 07/00 A3042 RMK A01 T00720002  RH  061%=      5-min Rain = 0
KCO1 150152Z 06005KT 07/00 A3042 RMK A01 T00720002  RH  061%=      5-min Rain = 0
KCO1 150153Z 06005KT 07/00 A3042 RMK A01 T00720002  RH  061%=      5-min Rain = 0
KCO1 150154Z 06005KT 07/00 A3042 RMK A01 T00720002  RH  061%=      5-min Rain = 0
KCO1 150155Z 06005KT 07/00 A3042 RMK A01 T00710002  RH  062%=      5-min Rain = 0
KCO1 150156Z 06005KT 07/00 A3042 RMK A01 T00710002  RH  062%=      5-min Rain = 0
KCO1 150157Z 06005KT 07/00 A3042 RMK A01 T00700002  RH  062%=      5-min Rain = 0
KCO1 150158Z 06005KT 07/00 A3042 RMK A01 T00700002  RH  062%=      5-min Rain = 0
KCO1 150159Z 06005KT 07/00 A3042 RMK A01 T00700002  RH  062%=      5-min Rain = 0
KCO1 150200Z 06005KT 07/00 A3042 RMK A01 T00700002  RH  062%=      5-min Rain = 0
KCO1 150201Z 06005KT 07/00 A3042 RMK A01 T00700001  RH  062%=      5-min Rain = 0
KCO1 150202Z 06005KT 07/00 A3042 RMK A01 T00700001  RH  062%=      5-min Rain = 0
KCO1 150203Z 06005KT 07/00 A3042 RMK A01 T00700001  RH  062%=      5-min Rain = 0
KCO1 150204Z 06005KT 07/00 A3042 RMK A01 T00700001  RH  061%=      5-min Rain = 0
KCO1 150205Z 06005KT 07/00 A3042 RMK A01 T00700001  RH  061%=      5-min Rain = 0
KCO1 150206Z 06005KT 07/00 A3042 RMK A01 T00700001  RH  061%=      5-min Rain = 0
KCO1 150207Z 06005KT 07/00 A3042 RMK A01 T00690001  RH  062%=      5-min Rain = 0
KCO1 150208Z 06005KT 07/00 A3042 RMK A01 T00690001  RH  062%=      5-min Rain = 0
KCO1 150209Z 06005KT 07/00 A3042 RMK A01 T00690001  RH  062%=      5-min Rain = 0
KCO1 150210Z 06006KT 07/00 A3042 RMK A01 T00680001  RH  062%=      5-min Rain = 0
KCO1 150211Z 06006KT 07/00 A3042 RMK A01 T00690001  RH  062%=      5-min Rain = 0
KCO1 150212Z 06005KT 07/00 A3042 RMK A01 T00680001  RH  062%=      5-min Rain = 0
KCO1 150213Z 06005KT 07/00 A3042 RMK A01 T00680001  RH  062%=      5-min Rain = 0
KCO1 150214Z 06005KT 07/00 A3042 RMK A01 T00680001  RH  062%=      5-min Rain = 0
KCO1 150215Z 06005KT 07/00 A3043 RMK A01 T00680000  RH  062%=      5-min Rain = 0
KCO1 150216Z 06005KT 07/00 A3043 RMK A01 T006800-0  RH  062%=      5-min Rain = 0
KCO1 150217Z 06005KT 07/00 A3043 RMK A01 T006800-0  RH  062%=      5-min Rain = 0
KCO1 150218Z 06005KT 07/00 A3043 RMK A01 T00690000  RH  062%=      5-min Rain = 0
KCO1 150219Z 06005KT 07/00 A3043 RMK A01 T00680000  RH  062%=      5-min Rain = 0
KCO1 150220Z 05005KT 07/00 A3043 RMK A01 T00680001  RH  062%=      5-min Rain = 0
KCO1 150221Z 05005KT 07/00 A3043 RMK A01 T00680001  RH  062%=      5-min Rain = 0
KCO1 150222Z 05005KT 07/00 A3043 RMK A01 T00670002  RH  063%=      5-min Rain = 0
KCO1 150223Z 05004KT 07/00 A3043 RMK A01 T00660003  RH  064%=      5-min Rain = 0
KCO1 150224Z 05004KT 07/00 A3043 RMK A01 T00650002  RH  064%=      5-min Rain = 0
KCO1 150225Z 05005KT 07/00 A3043 RMK A01 T00650002  RH  064%=      5-min Rain = 0
KCO1 150226Z 05005KT 07/00 A3043 RMK A01 T00650001  RH  064%=      5-min Rain = 0
KCO1 150227Z 05005KT 07/00 A3043 RMK A01 T00650001  RH  064%=      5-min Rain = 0
KCO1 150228Z 05005KT 07/00 A3043 RMK A01 T00650001  RH  064%=      5-min Rain = 0
KCO1 150229Z 05005KT 07/00 A3043 RMK A01 T00650001  RH  064%=      5-min Rain = 0
KCO1 150230Z 05005KT 07/00 A3043 RMK A01 T00650001  RH  064%=      5-min Rain = 0
KCO1 150231Z 05005KT 06/00 A3043 RMK A01 T00640001  RH  064%=      5-min Rain = 0
KCO1 150232Z 05005KT 06/00 A3043 RMK A01 T00640002  RH  064%=      5-min Rain = 0
KCO1 150233Z 05005KT 06/00 A3043 RMK A01 T00630001  RH  065%=      5-min Rain = 0
KCO1 150234Z 05005KT 06/00 A3043 RMK A01 T00630001  RH  065%=      5-min Rain = 0
KCO1 150235Z 04005KT 06/00 A3043 RMK A01 T00620001  RH  065%=      5-min Rain = 0
KCO1 150236Z 04004KT 06/00 A3043 RMK A01 T00610001  RH  065%=      5-min Rain = 0
KCO1 150237Z 04005KT 06/00 A3043 RMK A01 T00600001  RH  066%=      5-min Rain = 0
KCO1 150238Z 04004KT 06/00 A3043 RMK A01 T00590001  RH  066%=      5-min Rain = 0
KCO1 150239Z 04004KT 06/00 A3043 RMK A01 T00590001  RH  066%=      5-min Rain = 0
KCO1 150240Z 04005KT 06/00 A3043 RMK A01 T00590001  RH  067%=      5-min Rain = 0
KCO1 150241Z 04004KT 06/00 A3043 RMK A01 T00580001  RH  067%=      5-min Rain = 0
KCO1 150242Z 04004KT 06/00 A3043 RMK A01 T00570001  RH  067%=      5-min Rain = 0
KCO1 150243Z 04004KT 06/00 A3043 RMK A01 T00570001  RH  067%=      5-min Rain = 0
KCO1 150244Z 04004KT 06/00 A3043 RMK A01 T00570001  RH  067%=      5-min Rain = 0
KCO1 150245Z 04004KT 06/00 A3043 RMK A01 T00560002  RH  068%=      5-min Rain = 0
KCO1 150246Z 04004KT 06/00 A3043 RMK A01 T00560003  RH  069%=      5-min Rain = 0
KCO1 150247Z 04004KT 06/00 A3043 RMK A01 T00560004  RH  069%=      5-min Rain = 0
KCO1 150248Z 04004KT 06/00 A3043 RMK A01 T00550004  RH  070%=      5-min Rain = 0
KCO1 150249Z 04004KT 05/00 A3043 RMK A01 T00540004  RH  070%=      5-min Rain = 0
KCO1 150250Z 04004KT 05/00 A3043 RMK A01 T00540004  RH  070%=      5-min Rain = 0
KCO1 150251Z 04004KT 05/00 A3043 RMK A01 T00540004  RH  070%=      5-min Rain = 0
KCO1 150252Z 04004KT 05/00 A3043 RMK A01 T00530004  RH  070%=      5-min Rain = 0
KCO1 150253Z 04004KT 05/00 A3044 RMK A01 T00530003  RH  070%=      5-min Rain = 0
KCO1 150254Z 04004KT 05/00 A3044 RMK A01 T00530003  RH  070%=      5-min Rain = 0
KCO1 150255Z 04004KT 05/00 A3044 RMK A01 T00530003  RH  070%=      5-min Rain = 0
KCO1 150256Z 05004KT 05/00 A3044 RMK A01 T00530002  RH  070%=      5-min Rain = 0
KCO1 150257Z 05004KT 05/00 A3044 RMK A01 T00530002  RH  070%=      5-min Rain = 0
KCO1 150258Z 05004KT 05/00 A3044 RMK A01 T00530002  RH  069%=      5-min Rain = 0
KCO1 150259Z 05004KT 05/00 A3044 RMK A01 T00530001  RH  069%=      5-min Rain = 0
KCO1 150300Z 05004KT 05/00 A3044 RMK A01 T00540001  RH  069%=      5-min Rain = 0
KCO1 150301Z 05004KT 05/00 A3044 RMK A01 T00540001  RH  069%=      5-min Rain = 0
KCO1 150302Z 06004KT 05/00 A3044 RMK A01 T00540000  RH  068%=      5-min Rain = 0
KCO1 150303Z 06004KT 05/00 A3044 RMK A01 T00540000  RH  068%=      5-min Rain = 0
KCO1 150304Z 06004KT 06/00 A3044 RMK A01 T00560001  RH  068%=      5-min Rain = 0
KCO1 150305Z 06005KT 06/00 A3044 RMK A01 T00570000  RH  067%=      5-min Rain = 0
KCO1 150306Z 06005KT 06/00 A3044 RMK A01 T005800-0  RH  066%=      5-min Rain = 0
KCO1 150307Z 06005KT 06/M00 A3044 RMK A01 T00581001  RH  066%=      5-min Rain = 0
KCO1 150308Z 07005KT 06/M00 A3044 RMK A01 T00581001  RH  066%=      5-min Rain = 0
KCO1 150309Z 06004KT 06/M00 A3044 RMK A01 T00581001  RH  066%=      5-min Rain = 0
KCO1 150310Z 06004KT 06/M00 A3044 RMK A01 T00571001  RH  066%=      5-min Rain = 0
KCO1 150311Z 06004KT 06/M00 A3044 RMK A01 T00571001  RH  066%=      5-min Rain = 0
KCO1 150312Z 06004KT 06/M00 A3044 RMK A01 T00561001  RH  066%=      5-min Rain = 0
KCO1 150313Z 06004KT 06/M00 A3044 RMK A01 T00561001  RH  067%=      5-min Rain = 0
KCO1 150314Z 06004KT 06/M00 A3044 RMK A01 T00561001  RH  067%=      5-min Rain = 0
KCO1 150315Z 06004KT 06/M00 A3044 RMK A01 T00561001  RH  067%=      5-min Rain = 0
KCO1 150316Z 06004KT 06/M00 A3044 RMK A01 T00561001  RH  067%=      5-min Rain = 0
KCO1 150317Z 06004KT 06/M00 A3044 RMK A01 T00561001  RH  067%=      5-min Rain = 0
KCO1 150318Z 06004KT 06/M00 A3044 RMK A01 T00561001  RH  067%=      5-min Rain = 0
KCO1 150319Z 06004KT 06/M00 A3044 RMK A01 T00561001  RH  067%=      5-min Rain = 0
KCO1 150320Z 06004KT 06/M00 A3044 RMK A01 T00561001  RH  067%=      5-min Rain = 0
KCO1 150321Z 07004KT 06/M00 A3044 RMK A01 T00561002  RH  067%=      5-min Rain = 0
KCO1 150322Z 07004KT 06/M00 A3044 RMK A01 T00561002  RH  067%=      5-min Rain = 0
KCO1 150323Z 07005KT 06/M00 A3044 RMK A01 T00561002  RH  066%=      5-min Rain = 0
KCO1 150324Z 07004KT 06/M00 A3044 RMK A01 T00561002  RH  066%=      5-min Rain = 0
KCO1 150325Z 07004KT 06/M00 A3044 RMK A01 T00551002  RH  066%=      5-min Rain = 0
KCO1 150326Z 07004KT 06/M00 A3044 RMK A01 T00551003  RH  066%=      5-min Rain = 0
KCO1 150327Z 06005KT 06/M00 A3044 RMK A01 T00551003  RH  066%=      5-min Rain = 0
KCO1 150328Z 06005KT 06/M00 A3044 RMK A01 T00551003  RH  066%=      5-min Rain = 0
KCO1 150329Z 07005KT 06/M00 A3044 RMK A01 T00551003  RH  066%=      5-min Rain = 0
KCO1 150330Z 07005KT 06/M00 A3044 RMK A01 T00551003  RH  066%=      5-min Rain = 0
KCO1 150331Z 07005KT 06/M00 A3044 RMK A01 T00561003  RH  066%=      5-min Rain = 0
KCO1 150332Z 07005KT 06/M00 A3044 RMK A01 T00561003  RH  066%=      5-min Rain = 0
KCO1 150333Z 07005KT 06/M00 A3044 RMK A01 T00551003  RH  066%=      5-min Rain = 0
KCO1 150334Z 07005KT 06/M00 A3044 RMK A01 T00551003  RH  066%=      5-min Rain = 0
KCO1 150335Z 07005KT 06/M00 A3044 RMK A01 T00551004  RH  066%=      5-min Rain = 0
KCO1 150336Z 07005KT 05/M00 A3044 RMK A01 T00541004  RH  066%=      5-min Rain = 0
KCO1 150337Z 07005KT 05/M00 A3044 RMK A01 T00531004  RH  067%=      5-min Rain = 0
KCO1 150338Z 07005KT 05/M00 A3044 RMK A01 T00531004  RH  067%=      5-min Rain = 0
KCO1 150339Z 07005KT 05/M00 A3044 RMK A01 T00521004  RH  067%=      5-min Rain = 0
KCO1 150340Z 07005KT 05/M00 A3044 RMK A01 T00521003  RH  067%=      5-min Rain = 0
KCO1 150341Z 07005KT 05/M00 A3044 RMK A01 T00531003  RH  067%=      5-min Rain = 0
KCO1 150342Z 07005KT 05/M00 A3044 RMK A01 T00521003  RH  067%=      5-min Rain = 0
KCO1 150343Z 07005KT 05/M00 A3044 RMK A01 T00521003  RH  068%=      5-min Rain = 0
KCO1 150344Z 07005KT 05/M00 A3044 RMK A01 T00521003  RH  068%=      5-min Rain = 0
KCO1 150345Z 07005KT 05/M00 A3044 RMK A01 T00521003  RH  068%=      5-min Rain = 0
KCO1 150346Z 07005KT 05/M00 A3044 RMK A01 T00511003  RH  068%=      5-min Rain = 0
KCO1 150347Z 07005KT 05/M00 A3044 RMK A01 T00491004  RH  069%=      5-min Rain = 0
KCO1 150348Z 07005KT 05/M00 A3044 RMK A01 T00491003  RH  069%=      5-min Rain = 0
KCO1 150349Z 07005KT 05/M00 A3044 RMK A01 T00491003  RH  069%=      5-min Rain = 0
KCO1 150350Z 08005KT 05/M00 A3044 RMK A01 T00491003  RH  069%=      5-min Rain = 0
KCO1 150351Z 08005KT 05/M00 A3044 RMK A01 T00481003  RH  069%=      5-min Rain = 0
KCO1 150352Z 08005KT 05/M00 A3044 RMK A01 T00481003  RH  069%=      5-min Rain = 0
KCO1 150353Z 08005KT 05/M00 A3044 RMK A01 T00471003  RH  070%=      5-min Rain = 0
KCO1 150354Z 08005KT 05/M00 A3044 RMK A01 T00471003  RH  070%=      5-min Rain = 0
KCO1 150355Z 08005KT 05/M00 A3044 RMK A01 T00461003  RH  070%=      5-min Rain = 0
KCO1 150356Z 07005KT 05/M00 A3044 RMK A01 T00461003  RH  070%=      5-min Rain = 0
KCO1 150357Z 08005KT 05/M00 A3044 RMK A01 T00461003  RH  070%=      5-min Rain = 0
KCO1 150358Z 07004KT 05/M00 A3044 RMK A01 T00461003  RH  071%=      5-min Rain = 0
KCO1 150359Z 07004KT 05/M00 A3044 RMK A01 T00461003  RH  071%=      5-min Rain = 0
KCO1 150400Z 07004KT 05/M00 A3044 RMK A01 T00461003  RH  071%=      5-min Rain = 0
KCO1 150401Z 07004KT 05/M00 A3044 RMK A01 T00461002  RH  071%=      5-min Rain = 0
KCO1 150402Z 07004KT 05/M00 A3044 RMK A01 T00461002  RH  071%=      5-min Rain = 0
KCO1 150403Z 07004KT 05/M00 A3044 RMK A01 T00451002  RH  071%=      5-min Rain = 0
KCO1 150404Z 07004KT 05/M00 A3044 RMK A01 T00451002  RH  071%=      5-min Rain = 0
KCO1 150405Z 08004KT 05/M00 A3044 RMK A01 T00451002  RH  071%=      5-min Rain = 0
KCO1 150406Z 08004KT 05/M00 A3044 RMK A01 T00451002  RH  072%=      5-min Rain = 0
KCO1 150407Z 08004KT 05/M00 A3044 RMK A01 T00451001  RH  072%=      5-min Rain = 0
KCO1 150408Z 08004KT 04/00 A3044 RMK A01 T004400-0  RH  073%=      5-min Rain = 0
KCO1 150409Z 08004KT 04/M00 A3044 RMK A01 T00431001  RH  073%=      5-min Rain = 0
KCO1 150410Z 08004KT 04/M00 A3044 RMK A01 T00421001  RH  074%=      5-min Rain = 0
KCO1 150411Z 08004KT 04/M00 A3044 RMK A01 T00401001  RH  074%=      5-min Rain = 0
KCO1 150412Z 08004KT 04/M00 A3044 RMK A01 T00391001  RH  075%=      5-min Rain = 0
KCO1 150413Z 09004KT 04/M00 A3044 RMK A01 T00381001  RH  076%=      5-min Rain = 0
KCO1 150414Z 09004KT 04/M00 A3044 RMK A01 T00371001  RH  076%=      5-min Rain = 0
KCO1 150415Z 09004KT 04/M00 A3044 RMK A01 T00371001  RH  076%=      5-min Rain = 0
KCO1 150416Z 09004KT 04/M00 A3044 RMK A01 T00361001  RH  077%=      5-min Rain = 0
KCO1 150417Z 08004KT 04/M00 A3044 RMK A01 T00371001  RH  077%=      5-min Rain = 0
KCO1 150418Z 08004KT 04/M00 A3044 RMK A01 T00361001  RH  077%=      5-min Rain = 0
KCO1 150419Z 08004KT 04/M00 A3044 RMK A01 T00361001  RH  077%=      5-min Rain = 0
KCO1 150420Z 08004KT 04/M00 A3044 RMK A01 T00361001  RH  077%=      5-min Rain = 0
KCO1 150421Z 08003KT 04/M00 A3044 RMK A01 T00361001  RH  077%=      5-min Rain = 0
KCO1 150422Z 08003KT 04/M00 A3044 RMK A01 T00361001  RH  077%=      5-min Rain = 0
KCO1 150423Z 08003KT 04/M00 A3044 RMK A01 T00371001  RH  076%=      5-min Rain = 0
KCO1 150424Z 09003KT 04/M00 A3044 RMK A01 T00371001  RH  076%=      5-min Rain = 0
KCO1 150425Z 09003KT 04/M00 A3044 RMK A01 T00371002  RH  076%=      5-min Rain = 0
KCO1 150426Z 09003KT 04/M00 A3044 RMK A01 T00371002  RH  076%=      5-min Rain = 0
KCO1 150427Z 09003KT 04/M00 A3044 RMK A01 T00371002  RH  076%=      5-min Rain = 0
KCO1 150428Z 09003KT 04/M00 A3044 RMK A01 T00371003  RH  075%=      5-min Rain = 0
KCO1 150429Z 09003KT 04/M00 A3044 RMK A01 T00371003  RH  075%=      5-min Rain = 0
KCO1 150430Z 09003KT 04/M00 A3044 RMK A01 T00361003  RH  075%=      5-min Rain = 0
KCO1 150431Z 09003KT 04/M00 A3044 RMK A01 T00361004  RH  075%=      5-min Rain = 0
KCO1 150432Z 09003KT 04/M00 A3044 RMK A01 T00361004  RH  075%=      5-min Rain = 0
KCO1 150433Z 08003KT 04/M01 A3044 RMK A01 T00361005  RH  075%=      5-min Rain = 0
KCO1 150434Z 08003KT 04/M01 A3044 RMK A01 T00361005  RH  075%=      5-min Rain = 0
KCO1 150435Z 08003KT 04/M01 A3044 RMK A01 T00361005  RH  074%=      5-min Rain = 0
KCO1 150436Z 09003KT 04/M01 A3044 RMK A01 T00371005  RH  074%=      5-min Rain = 0
KCO1 150437Z 09003KT 04/M01 A3044 RMK A01 T00371005  RH  074%=      5-min Rain = 0
KCO1 150438Z 09003KT 04/M01 A3044 RMK A01 T00371005  RH  074%=      5-min Rain = 0
KCO1 150439Z 09003KT 04/M01 A3044 RMK A01 T00371005  RH  074%=      5-min Rain = 0
KCO1 150440Z 09003KT 04/M01 A3044 RMK A01 T00371005  RH  074%=      5-min Rain = 0
KCO1 150441Z 09003KT 04/M01 A3044 RMK A01 T00371005  RH  074%=      5-min Rain = 0
KCO1 150442Z 09003KT 04/M01 A3044 RMK A01 T00371005  RH  074%=      5-min Rain = 0
KCO1 150443Z 09003KT 04/M00 A3044 RMK A01 T00371004  RH  075%=      5-min Rain = 0
KCO1 150444Z 10003KT 04/M00 A3044 RMK A01 T00371004  RH  075%=      5-min Rain = 0
KCO1 150445Z 09003KT 04/M00 A3044 RMK A01 T00371004  RH  074%=      5-min Rain = 0
KCO1 150446Z 09002KT 04/M01 A3044 RMK A01 T00381005  RH  074%=      5-min Rain = 0
KCO1 150447Z 09003KT 04/M01 A3044 RMK A01 T00381005  RH  073%=      5-min Rain = 0
KCO1 150448Z 09003KT 04/M01 A3044 RMK A01 T00391005  RH  073%=      5-min Rain = 0
KCO1 150449Z 09002KT 04/M01 A3044 RMK A01 T00391006  RH  072%=      5-min Rain = 0
KCO1 150450Z 09002KT 04/M01 A3044 RMK A01 T00401006  RH  072%=      5-min Rain = 0
KCO1 150451Z 09002KT 04/M01 A3044 RMK A01 T00401007  RH  072%=      5-min Rain = 0
KCO1 150452Z 09002KT 04/M01 A3044 RMK A01 T00411007  RH  071%=      5-min Rain = 0
KCO1 150453Z 09002KT 04/M01 A3045 RMK A01 T00411007  RH  071%=      5-min Rain = 0
KCO1 150454Z 09002KT 04/M01 A3045 RMK A01 T00401007  RH  071%=      5-min Rain = 0
KCO1 150455Z 09002KT 04/M01 A3045 RMK A01 T00401007  RH  071%=      5-min Rain = 0
KCO1 150456Z 09001KT 04/M01 A3045 RMK A01 T00411007  RH  071%=      5-min Rain = 0
KCO1 150457Z 09001KT 04/M01 A3045 RMK A01 T00411007  RH  071%=      5-min Rain = 0
KCO1 150458Z 09001KT 04/M01 A3045 RMK A01 T00421007  RH  071%=      5-min Rain = 0
KCO1 150459Z 09001KT 04/M01 A3045 RMK A01 T00421007  RH  070%=      5-min Rain = 0
KCO1 150500Z 09002KT 04/M01 A3045 RMK A01 T00431008  RH  070%=      5-min Rain = 0
KCO1 150501Z 09001KT 04/M01 A3045 RMK A01 T00431008  RH  069%=      5-min Rain = 0
KCO1 150502Z 08002KT 04/M01 A3045 RMK A01 T00441008  RH  069%=      5-min Rain = 0
KCO1 150503Z 08002KT 04/M01 A3045 RMK A01 T00441008  RH  069%=      5-min Rain = 0
KCO1 150504Z 08002KT 05/M01 A3045 RMK A01 T00451009  RH  068%=      5-min Rain = 0
KCO1 150505Z 08002KT 05/M01 A3045 RMK A01 T00451009  RH  068%=      5-min Rain = 0
KCO1 150506Z 08002KT 05/M01 A3045 RMK A01 T00451009  RH  068%=      5-min Rain = 0
KCO1 150507Z 08002KT 05/M01 A3045 RMK A01 T00461010  RH  067%=      5-min Rain = 0
KCO1 150508Z 08002KT 05/M01 A3045 RMK A01 T00461009  RH  067%=      5-min Rain = 0
KCO1 150509Z 08002KT 05/M01 A3045 RMK A01 T00471009  RH  067%=      5-min Rain = 0
KCO1 150510Z 08002KT 05/M01 A3045 RMK A01 T00461009  RH  067%=      5-min Rain = 0
KCO1 150511Z 08002KT 05/M01 A3045 RMK A01 T00451010  RH  068%=      5-min Rain = 0
KCO1 150512Z 08002KT 05/M01 A3045 RMK A01 T00451009  RH  068%=      5-min Rain = 0
KCO1 150513Z 09001KT 05/M01 A3045 RMK A01 T00451009  RH  068%=      5-min Rain = 0
KCO1 150514Z 09001KT 04/M01 A3045 RMK A01 T00441010  RH  068%=      5-min Rain = 0
KCO1 150515Z 10001KT 04/M01 A3045 RMK A01 T00441010  RH  068%=      5-min Rain = 0
KCO1 150516Z 11001KT 04/M01 A3045 RMK A01 T00431010  RH  068%=      5-min Rain = 0
KCO1 150517Z 11001KT 04/M01 A3045 RMK A01 T00431010  RH  069%=      5-min Rain = 0
KCO1 150518Z 11001KT 04/M01 A3045 RMK A01 T00421010  RH  069%=      5-min Rain = 0
KCO1 150519Z 11001KT 04/M01 A3045 RMK A01 T00411010  RH  069%=      5-min Rain = 0
KCO1 150520Z 11001KT 04/M01 A3045 RMK A01 T00401010  RH  070%=      5-min Rain = 0
KCO1 150521Z 11001KT 04/M01 A3046 RMK A01 T00401010  RH  070%=      5-min Rain = 0
KCO1 150522Z 11000KT 04/M01 A3046 RMK A01 T00401009  RH  070%=      5-min Rain = 0
KCO1 150523Z 11000KT 04/M01 A3046 RMK A01 T00401009  RH  070%=      5-min Rain = 0
KCO1 150524Z 16000KT 04/M01 A3046 RMK A01 T00401009  RH  071%=      5-min Rain = 0
KCO1 150525Z 17001KT 04/M01 A3046 RMK A01 T00391008  RH  071%=      5-min Rain = 0
KCO1 150526Z 19002KT 04/M01 A3046 RMK A01 T00381007  RH  072%=      5-min Rain = 0
KCO1 150527Z 19002KT 04/M01 A3046 RMK A01 T00371007  RH  073%=      5-min Rain = 0
KCO1 150528Z 19002KT 04/M01 A3046 RMK A01 T00351008  RH  073%=      5-min Rain = 0
KCO1 150529Z 20002KT 03/M01 A3046 RMK A01 T00331007  RH  075%=      5-min Rain = 0
KCO1 150530Z 20003KT 03/M01 A3046 RMK A01 T00311006  RH  076%=      5-min Rain = 0
KCO1 150531Z 20003KT 03/M01 A3046 RMK A01 T00301007  RH  077%=      5-min Rain = 0
KCO1 150532Z 20003KT 03/M01 A3046 RMK A01 T00271008  RH  077%=      5-min Rain = 0
KCO1 150533Z 20003KT 03/M01 A3046 RMK A01 T00261009  RH  078%=      5-min Rain = 0
KCO1 150534Z 20003KT 03/M01 A3046 RMK A01 T00251009  RH  079%=      5-min Rain = 0
KCO1 150535Z 20003KT 02/M01 A3046 RMK A01 T00241008  RH  079%=      5-min Rain = 0
KCO1 150536Z 21003KT 02/M01 A3046 RMK A01 T00241008  RH  079%=      5-min Rain = 0
KCO1 150537Z 21003KT 02/M01 A3046 RMK A01 T00241009  RH  079%=      5-min Rain = 0
KCO1 150538Z 21003KT 02/M01 A3046 RMK A01 T00241009  RH  079%=      5-min Rain = 0
KCO1 150539Z 22003KT 02/M01 A3046 RMK A01 T00241008  RH  079%=      5-min Rain = 0
KCO1 150540Z 22003KT 02/M01 A3046 RMK A01 T00241009  RH  079%=      5-min Rain = 0
KCO1 150541Z 22003KT 02/M01 A3046 RMK A01 T00241009  RH  079%=      5-min Rain = 0
KCO1 150542Z 22003KT 02/M01 A3046 RMK A01 T00241009  RH  079%=      5-min Rain = 0
KCO1 150543Z 22003KT 02/M01 A3045 RMK A01 T00241009  RH  079%=      5-min Rain = 0
KCO1 150544Z 22003KT 03/M01 A3045 RMK A01 T00251009  RH  078%=      5-min Rain = 0
KCO1 150545Z 22003KT 03/M01 A3045 RMK A01 T00251009  RH  078%=      5-min Rain = 0
KCO1 150546Z 22003KT 03/M01 A3045 RMK A01 T00251010  RH  078%=      5-min Rain = 0
KCO1 150547Z 22003KT 03/M01 A3046 RMK A01 T00251009  RH  078%=      5-min Rain = 0
KCO1 150548Z 22003KT 03/M01 A3046 RMK A01 T00251009  RH  078%=      5-min Rain = 0
KCO1 150549Z 22002KT 03/M01 A3046 RMK A01 T00251009  RH  078%=      5-min Rain = 0
KCO1 150550Z 22002KT 02/M01 A3046 RMK A01 T00241010  RH  078%=      5-min Rain = 0
KCO1 150551Z 21002KT 02/M01 A3046 RMK A01 T00241010  RH  078%=      5-min Rain = 0
KCO1 150552Z 21002KT 02/M01 A3046 RMK A01 T00231010  RH  079%=      5-min Rain = 0
KCO1 150553Z 21002KT 02/M01 A3045 RMK A01 T00221010  RH  079%=      5-min Rain = 0
KCO1 150554Z 21002KT 02/M01 A3045 RMK A01 T00221010  RH  079%=      5-min Rain = 0
KCO1 150555Z 22002KT 02/M01 A3045 RMK A01 T00221009  RH  080%=      5-min Rain = 0
KCO1 150556Z 22002KT 02/M01 A3045 RMK A01 T00211009  RH  080%=      5-min Rain = 0
KCO1 150557Z 22002KT 02/M01 A3045 RMK A01 T00211009  RH  080%=      5-min Rain = 0
KCO1 150558Z 22002KT 02/M01 A3045 RMK A01 T00221009  RH  080%=      5-min Rain = 0
KCO1 150559Z 22002KT 02/M01 A3045 RMK A01 T00221008  RH  080%=      5-min Rain = 0

Page generated in 0.1315 seconds.